| time (UTC) | temp F | wind direction | speed MPH | gust MPH | rain 1hr in | rain 24hr in | rain mn in | humidity % | barometer mb |
| 20260510231159 | 72 | 290 | 2.0 | 4.0 | 0.00 | 0.00 | 0.00 | 50 | 1018.6 |
| 20260510231149 | 72 | 290 | 2.0 | 4.0 | 0.00 | 0.00 | 0.00 | 51 | 1018.6 |
| 20260510230921 | 72 | 301 | 2.0 | 4.0 | 0.00 | 0.00 | 0.00 | 50 | 1018.6 |
| 20260510230822 | 72 | 303 | 2.0 | 4.0 | 0.00 | 0.00 | 0.00 | 50 | 1018.6 |
| 20260510230719 | 72 | 304 | 2.0 | 4.0 | 0.00 | 0.00 | 0.00 | 50 | 1018.6 |
| 20260510230629 | 73 | 322 | 1.0 | 4.0 | 0.00 | 0.00 | 0.00 | 51 | 1018.5 |
| 20260510230620 | 72 | 293 | 2.0 | 4.0 | 0.00 | 0.00 | 0.00 | 50 | 1018.6 |
| 20260510230613 | 73 | 288 | 1.0 | 4.0 | 0.00 | 0.00 | 0.00 | 51 | 1018.5 |
| 20260510230555 | 73 | 295 | 2.0 | 4.0 | 0.00 | 0.00 | 0.00 | 50 | 1018.6 |
| 20260510230218 | 73 | 288 | 1.0 | 4.0 | 0.00 | 0.00 | 0.00 | 50 | 1018.6 |
| 20260510230116 | 73 | 288 | 2.0 | 4.0 | 0.00 | 0.00 | 0.00 | 51 | 1018.5 |
| 20260510230017 | 73 | 288 | 2.0 | 4.0 | 0.00 | 0.00 | 0.00 | 50 | 1018.5 |
| 20260510225943 | 73 | 282 | 1.0 | 4.0 | 0.00 | 0.00 | 0.00 | 50 | 1018.5 |
| 20260510225933 | 73 | 284 | 1.0 | 4.0 | 0.00 | 0.00 | 0.00 | 50 | 1018.5 |
| 20260510225713 | 73 | 266 | 1.0 | 4.0 | 0.00 | 0.00 | 0.00 | 50 | 1018.5 |
| 20260510225613 | 73 | 265 | 1.0 | 4.0 | 0.00 | 0.00 | 0.00 | 50 | 1018.5 |
| 20260510225515 | 74 | 257 | 1.0 | 3.0 | 0.00 | 0.00 | 0.00 | 50 | 1018.7 |
| 20260510225451 | 74 | 269 | 1.0 | 3.0 | 0.00 | 0.00 | 0.00 | 50 | 1018.5 |
| 20260510225436 | 74 | 267 | 1.0 | 3.0 | 0.00 | 0.00 | 0.00 | 50 | 1018.5 |
| 20260510225212 | 74 | 268 | 1.0 | 3.0 | 0.00 | 0.00 | 0.00 | 50 | 1018.5 |
| 20260510225140 | 74 | 267 | 1.0 | 5.0 | 0.00 | 0.00 | 0.00 | 50 | 1018.6 |
| 20260510225130 | 74 | 268 | 1.0 | 3.0 | 0.00 | 0.00 | 0.00 | 50 | 1018.6 |
| 20260510224908 | 74 | 268 | 1.0 | 5.0 | 0.00 | 0.00 | 0.00 | 51 | 1018.6 |
| 20260510224807 | 74 | 267 | 1.0 | 5.0 | 0.00 | 0.00 | 0.00 | 51 | 1018.5 |
| 20260510224659 | 75 | 267 | 2.0 | 5.0 | 0.00 | 0.00 | 0.00 | 52 | 1018.5 |
| 20260510224628 | 75 | 267 | 2.0 | 5.0 | 0.00 | 0.00 | 0.00 | 50 | 1018.6 |
| 20260510224619 | 75 | 267 | 2.0 | 5.0 | 0.00 | 0.00 | 0.00 | 52 | 1018.6 |
| 20260510224359 | 75 | 288 | 2.0 | 5.0 | 0.00 | 0.00 | 0.00 | 51 | 1018.6 |
| 20260510224300 | 75 | 288 | 2.0 | 5.0 | 0.00 | 0.00 | 0.00 | 53 | 1018.7 |
| 20260510224153 | 75 | 288 | 2.0 | 5.0 | 0.00 | 0.00 | 0.00 | 53 | 1018.7 |
| 20260510224052 | 75 | 229 | 2.0 | 5.0 | 0.00 | 0.00 | 0.00 | 52 | 1018.7 |
| 20260510223952 | 76 | 265 | 1.0 | 4.0 | 0.00 | 0.00 | 0.00 | 54 | 1018.7 |
| 20260510223852 | 76 | 165 | 1.0 | 6.0 | 0.00 | 0.00 | 0.00 | 52 | 1018.8 |
| 20260510223752 | 76 | 268 | 1.0 | 6.0 | 0.00 | 0.00 | 0.00 | 53 | 1018.7 |
| 20260510223653 | 76 | 231 | 1.0 | 6.0 | 0.00 | 0.00 | 0.00 | 55 | 1018.7 |
| 20260510223550 | 76 | 231 | 1.0 | 6.0 | 0.00 | 0.00 | 0.00 | 55 | 1018.8 |
| 20260510223452 | 76 | 230 | 1.0 | 6.0 | 0.00 | 0.00 | 0.00 | 52 | 1018.7 |
| 20260510223421 | 76 | 205 | 1.0 | 6.0 | 0.00 | 0.00 | 0.00 | 55 | 1018.8 |
| 20260510223412 | 76 | 237 | 1.0 | 6.0 | 0.00 | 0.00 | 0.00 | 55 | 1018.7 |
| 20260510223153 | 76 | 226 | 1.0 | 6.0 | 0.00 | 0.00 | 0.00 | 54 | 1018.7 |
| 20260510223050 | 76 | 206 | 1.0 | 6.0 | 0.00 | 0.00 | 0.00 | 54 | 1018.8 |
| 20260510222950 | 76 | 209 | 1.0 | 6.0 | 0.00 | 0.00 | 0.00 | 53 | 1018.7 |
| 20260510222847 | 76 | 186 | 1.0 | 4.0 | 0.00 | 0.00 | 0.00 | 53 | 1018.7 |
| 20260510222747 | 76 | 186 | 1.0 | 4.0 | 0.00 | 0.00 | 0.00 | 54 | 1018.8 |
| 20260510222646 | 76 | 194 | 1.0 | 4.0 | 0.00 | 0.00 | 0.00 | 55 | 1018.8 |
| 20260510222543 | 76 | 195 | 2.0 | 7.0 | 0.00 | 0.00 | 0.00 | 53 | 1018.7 |
| 20260510222444 | 76 | 194 | 2.0 | 8.0 | 0.00 | 0.00 | 0.00 | 53 | 1018.7 |
| 20260510222342 | 76 | 194 | 2.0 | 8.0 | 0.00 | 0.00 | 0.00 | 53 | 1018.6 |
| 20260510222242 | 76 | 194 | 2.0 | 8.0 | 0.00 | 0.00 | 0.00 | 52 | 1018.7 |
| 20260510222140 | 76 | 194 | 3.0 | 9.0 | 0.00 | 0.00 | 0.00 | 52 | 1018.7 |
| 20260510222041 | 76 | 129 | 3.0 | 9.0 | 0.00 | 0.00 | 0.00 | 52 | 1018.7 |
| 20260510221940 | 76 | 203 | 3.0 | 9.0 | 0.00 | 0.00 | 0.00 | 51 | 1018.7 |
| 20260510221934 | 76 | 240 | 3.0 | 9.0 | 0.00 | 0.00 | 0.00 | 50 | 1018.7 |
| 20260510221929 | 76 | 190 | 2.0 | 9.0 | 0.00 | 0.00 | 0.00 | 50 | 1018.7 |
| 20260510221912 | 76 | 240 | 3.0 | 9.0 | 0.00 | 0.00 | 0.00 | 51 | 1018.7 |
| 20260510221535 | 76 | 208 | 2.0 | 9.0 | 0.00 | 0.00 | 0.00 | 50 | 1018.7 |
| 20260510221504 | 76 | 186 | 2.0 | 9.0 | 0.00 | 0.00 | 0.00 | 51 | 1018.7 |
| 20260510221454 | 76 | 240 | 2.0 | 9.0 | 0.00 | 0.00 | 0.00 | 51 | 1018.7 |
| 20260510221235 | 76 | 173 | 2.0 | 9.0 | 0.00 | 0.00 | 0.00 | 52 | 1018.7 |
| 20260510221228 | 77 | 198 | 2.0 | 7.0 | 0.00 | 0.00 | 0.00 | 54 | 1018.8 |
| 20260510221222 | 77 | 223 | 2.0 | 7.0 | 0.00 | 0.00 | 0.00 | 52 | 1018.8 |
| 20260510221217 | 77 | 190 | 2.0 | 7.0 | 0.00 | 0.00 | 0.00 | 55 | 1018.8 |
| 20260510221203 | 77 | 207 | 2.0 | 7.0 | 0.00 | 0.00 | 0.00 | 52 | 1018.7 |
| 20260510221021 | 77 | 216 | 2.0 | 7.0 | 0.00 | 0.00 | 0.00 | 56 | 1018.8 |
| 20260510220738 | 77 | 198 | 2.0 | 7.0 | 0.00 | 0.00 | 0.00 | 53 | 1018.8 |
| 20260510220520 | 77 | 198 | 2.0 | 7.0 | 0.00 | 0.00 | 0.00 | 53 | 1018.7 |
| 20260510220417 | 77 | 204 | 2.0 | 7.0 | 0.00 | 0.00 | 0.00 | 55 | 1018.8 |
| 20260510220317 | 78 | 233 | 2.0 | 7.0 | 0.00 | 0.00 | 0.00 | 54 | 1018.8 |
| 20260510220230 | 77 | 180 | 2.0 | 8.0 | 0.00 | 0.00 | 0.00 | 50 | 1018.8 |
| 20260510220219 | 78 | 192 | 2.0 | 6.0 | 0.00 | 0.00 | 0.00 | 55 | 1018.7 |
| 20260510220159 | 78 | 213 | 2.0 | 6.0 | 0.00 | 0.00 | 0.00 | 51 | 1018.7 |
| 20260510220042 | 77 | 192 | 2.0 | 6.0 | 0.00 | 0.00 | 0.00 | 50 | 1018.8 |
| 20260510220034 | 78 | 184 | 1.0 | 6.0 | 0.00 | 0.00 | 0.00 | 52 | 1018.7 |
| 20260510215850 | 77 | 186 | 2.0 | 6.0 | 0.00 | 0.00 | 0.00 | 48 | 1018.8 |
| 20260510215728 | 77 | 180 | 2.0 | 6.0 | 0.00 | 0.00 | 0.00 | 48 | 1018.8 |
| 20260510215508 | 77 | 217 | 2.0 | 8.0 | 0.00 | 0.00 | 0.00 | 52 | 1018.7 |
| 20260510215431 | 77 | 220 | 2.0 | 8.0 | 0.00 | 0.00 | 0.00 | 53 | 1018.7 |
| 20260510215418 | 77 | 233 | 2.0 | 8.0 | 0.00 | 0.00 | 0.00 | 52 | 1018.7 |
| 20260510215153 | 77 | 217 | 2.0 | 8.0 | 0.00 | 0.00 | 0.00 | 53 | 1018.7 |
| 20260510215125 | 77 | 273 | 2.0 | 8.0 | 0.00 | 0.00 | 0.00 | 47 | 1018.7 |
| 20260510215114 | 77 | 217 | 2.0 | 8.0 | 0.00 | 0.00 | 0.00 | 48 | 1018.6 |
| 20260510214851 | 77 | 268 | 1.0 | 8.0 | 0.00 | 0.00 | 0.00 | 50 | 1018.7 |
| 20260510214751 | 76 | 239 | 1.0 | 8.0 | 0.00 | 0.00 | 0.00 | 50 | 1018.6 |
| 20260510214651 | 76 | 237 | 1.0 | 8.0 | 0.00 | 0.00 | 0.00 | 50 | 1018.6 |
| 20260510214549 | 76 | 281 | 1.0 | 4.0 | 0.00 | 0.00 | 0.00 | 50 | 1018.7 |
| 20260510214449 | 76 | 281 | 1.0 | 4.0 | 0.00 | 0.00 | 0.00 | 49 | 1018.7 |
| 20260510214343 | 76 | 279 | 1.0 | 4.0 | 0.00 | 0.00 | 0.00 | 49 | 1018.7 |
| 20260510214242 | 76 | 194 | 2.0 | 4.0 | 0.00 | 0.00 | 0.00 | 49 | 1018.8 |
| 20260510214142 | 76 | 236 | 2.0 | 8.0 | 0.00 | 0.00 | 0.00 | 48 | 1018.7 |
| 20260510214043 | 76 | 312 | 2.0 | 8.0 | 0.00 | 0.00 | 0.00 | 47 | 1018.8 |
| 20260510213942 | 76 | 242 | 2.0 | 8.0 | 0.00 | 0.00 | 0.00 | 50 | 1018.7 |
| 20260510213840 | 76 | 242 | 3.0 | 8.0 | 0.00 | 0.00 | 0.00 | 49 | 1018.7 |
| 20260510213735 | 76 | 205 | 3.0 | 10.0 | 0.00 | 0.00 | 0.00 | 49 | 1018.7 |
| 20260510213633 | 76 | 203 | 3.0 | 10.0 | 0.00 | 0.00 | 0.00 | 48 | 1018.7 |
| 20260510213556 | 75 | 307 | 3.0 | 10.0 | 0.00 | 0.00 | 0.00 | 47 | 1018.8 |
| 20260510213551 | 75 | 270 | 3.0 | 10.0 | 0.00 | 0.00 | 0.00 | 49 | 1018.8 |
| 20260510213539 | 75 | 307 | 3.0 | 10.0 | 0.00 | 0.00 | 0.00 | 47 | 1018.8 |
| 20260510213516 | 75 | 307 | 3.0 | 10.0 | 0.00 | 0.00 | 0.00 | 47 | 1018.7 |
| 20260510213202 | 75 | 235 | 2.0 | 10.0 | 0.00 | 0.00 | 0.00 | 49 | 1018.8 |
| 20260510213152 | 75 | 255 | 3.0 | 10.0 | 0.00 | 0.00 | 0.00 | 49 | 1018.7 |
| 20260510212932 | 74 | 316 | 2.0 | 10.0 | 0.00 | 0.00 | 0.00 | 50 | 1018.8 |
| 20260510212840 | 74 | 209 | 2.0 | 6.0 | 0.00 | 0.00 | 0.00 | 58 | 1018.7 |
| 20260510212829 | 74 | 276 | 2.0 | 9.0 | 0.00 | 0.00 | 0.00 | 58 | 1018.8 |
| 20260510212822 | 74 | 229 | 1.0 | 6.0 | 0.00 | 0.00 | 0.00 | 56 | 1018.7 |
| 20260510212805 | 74 | 200 | 2.0 | 6.0 | 0.00 | 0.00 | 0.00 | 57 | 1018.7 |
| 20260510212429 | 74 | 192 | 1.0 | 6.0 | 0.00 | 0.00 | 0.00 | 54 | 1018.7 |
| 20260510212329 | 74 | 192 | 1.0 | 6.0 | 0.00 | 0.00 | 0.00 | 58 | 1018.8 |
| 20260510212229 | 74 | 261 | 1.0 | 6.0 | 0.00 | 0.00 | 0.00 | 57 | 1018.7 |
| 20260510212156 | 74 | 217 | 1.0 | 3.0 | 0.00 | 0.00 | 0.00 | 57 | 1018.7 |
| 20260510212144 | 74 | 217 | 1.0 | 3.0 | 0.00 | 0.00 | 0.00 | 57 | 1018.8 |
| 20260510211923 | 74 | 218 | 1.0 | 3.0 | 0.00 | 0.00 | 0.00 | 56 | 1018.7 |
| 20260510211824 | 74 | 227 | 1.0 | 3.0 | 0.00 | 0.00 | 0.00 | 56 | 1018.8 |
| 20260510211723 | 74 | 208 | 1.0 | 3.0 | 0.00 | 0.00 | 0.00 | 55 | 1018.8 |
| 20260510211623 | 74 | 208 | 1.0 | 3.0 | 0.00 | 0.00 | 0.00 | 55 | 1018.8 |
| 20260510211522 | 74 | 209 | 1.0 | 4.0 | 0.00 | 0.00 | 0.00 | 55 | 1018.7 |
| 20260510211420 | 74 | 209 | 1.0 | 4.0 | 0.00 | 0.00 | 0.00 | 55 | 1018.8 |
| 20260510211321 | 74 | 205 | 1.0 | 5.0 | 0.00 | 0.00 | 0.00 | 56 | 1018.7 |
| 20260510211219 | 74 | 202 | 1.0 | 6.0 | 0.00 | 0.00 | 0.00 | 57 | 1018.8 |
| 20260510211111 | 74 | 201 | 1.0 | 6.0 | 0.00 | 0.00 | 0.00 | 58 | 1018.7 |
| 20260510211044 | 74 | 199 | 1.0 | 6.0 | 0.00 | 0.00 | 0.00 | 58 | 1018.8 |
| 20260510211034 | 74 | 201 | 1.0 | 6.0 | 0.00 | 0.00 | 0.00 | 58 | 1018.7 |
| 20260510210844 | 74 | 199 | 2.0 | 6.0 | 0.00 | 0.00 | 0.00 | 59 | 1018.8 |
| 20260510210834 | 74 | 199 | 2.0 | 6.0 | 0.00 | 0.00 | 0.00 | 57 | 1018.8 |
| 20260510210608 | 74 | 230 | 2.0 | 6.0 | 0.00 | 0.00 | 0.00 | 60 | 1018.8 |
| 20260510210505 | 74 | 194 | 2.0 | 6.0 | 0.00 | 0.00 | 0.00 | 60 | 1018.8 |
| 20260510210404 | 74 | 189 | 2.0 | 7.0 | 0.00 | 0.00 | 0.00 | 60 | 1018.9 |
| 20260510210304 | 73 | 213 | 2.0 | 7.0 | 0.00 | 0.00 | 0.00 | 58 | 1018.9 |
| 20260510210203 | 73 | 219 | 2.0 | 7.0 | 0.00 | 0.00 | 0.00 | 56 | 1018.8 |
| 20260510210145 | 73 | 223 | 2.0 | 7.0 | 0.00 | 0.00 | 0.00 | 55 | 1018.8 |
| 20260510210133 | 73 | 219 | 2.0 | 7.0 | 0.00 | 0.00 | 0.00 | 55 | 1018.8 |
| 20260510205905 | 73 | 232 | 2.0 | 7.0 | 0.00 | 0.00 | 0.00 | 54 | 1018.9 |
| 20260510205832 | 73 | 248 | 1.0 | 7.0 | 0.00 | 0.00 | 0.00 | 56 | 1018.8 |
| 20260510205823 | 73 | 221 | 2.0 | 7.0 | 0.00 | 0.00 | 0.00 | 57 | 1018.9 |
| 20260510205600 | 74 | 271 | 1.0 | 7.0 | 0.00 | 0.00 | 0.00 | 55 | 1018.8 |
| 20260510205459 | 74 | 249 | 1.0 | 7.0 | 0.00 | 0.00 | 0.00 | 58 | 1018.8 |
| 20260510205359 | 74 | 240 | 1.0 | 6.0 | 0.00 | 0.00 | 0.00 | 58 | 1018.8 |
| 20260510205306 | 74 | 239 | 1.0 | 6.0 | 0.00 | 0.00 | 0.00 | 57 | 1018.8 |
| 20260510205201 | 74 | 202 | 1.0 | 6.0 | 0.00 | 0.00 | 0.00 | 58 | 1018.8 |
| 20260510205110 | 74 | 242 | 1.0 | 8.0 | 0.00 | 0.00 | 0.00 | 59 | 1018.8 |
| 20260510205100 | 74 | 202 | 1.0 | 6.0 | 0.00 | 0.00 | 0.00 | 58 | 1018.8 |
| 20260510205054 | 74 | 267 | 1.0 | 8.0 | 0.00 | 0.00 | 0.00 | 58 | 1018.8 |
| 20260510205036 | 74 | 202 | 1.0 | 8.0 | 0.00 | 0.00 | 0.00 | 55 | 1018.8 |
| 20260510204657 | 74 | 267 | 2.0 | 8.0 | 0.00 | 0.00 | 0.00 | 57 | 1018.8 |
| 20260510204634 | 75 | 267 | 3.0 | 9.0 | 0.00 | 0.00 | 0.00 | 52 | 1018.8 |
| 20260510204620 | 74 | 267 | 3.0 | 9.0 | 0.00 | 0.00 | 0.00 | 56 | 1018.7 |
| 20260510204427 | 75 | 280 | 3.0 | 9.0 | 0.00 | 0.00 | 0.00 | 53 | 1018.8 |
| 20260510204330 | 75 | 197 | 3.0 | 9.0 | 0.00 | 0.00 | 0.00 | 58 | 1018.8 |
| 20260510204320 | 75 | 263 | 3.0 | 9.0 | 0.00 | 0.00 | 0.00 | 57 | 1018.8 |
| 20260510204055 | 75 | 197 | 3.0 | 9.0 | 0.00 | 0.00 | 0.00 | 56 | 1018.8 |
| 20260510203954 | 75 | 308 | 3.0 | 9.0 | 0.00 | 0.00 | 0.00 | 53 | 1018.8 |
| 20260510203855 | 75 | 314 | 3.0 | 9.0 | 0.00 | 0.00 | 0.00 | 52 | 1018.8 |
| 20260510203752 | 75 | 269 | 3.0 | 9.0 | 0.00 | 0.00 | 0.00 | 50 | 1018.8 |
| 20260510203652 | 75 | 264 | 3.0 | 9.0 | 0.00 | 0.00 | 0.00 | 49 | 1018.8 |
| 20260510203553 | 76 | 309 | 2.0 | 9.0 | 0.00 | 0.00 | 0.00 | 50 | 1018.8 |
| 20260510203455 | 76 | 213 | 2.0 | 8.0 | 0.00 | 0.00 | 0.00 | 50 | 1018.9 |
| 20260510203355 | 76 | 233 | 2.0 | 8.0 | 0.00 | 0.00 | 0.00 | 51 | 1018.8 |
| 20260510203254 | 76 | 226 | 2.0 | 8.0 | 0.00 | 0.00 | 0.00 | 53 | 1018.8 |
| 20260510203149 | 76 | 226 | 1.0 | 8.0 | 0.00 | 0.00 | 0.00 | 58 | 1018.8 |
| 20260510203047 | 76 | 193 | 1.0 | 8.0 | 0.00 | 0.00 | 0.00 | 57 | 1018.8 |
| 20260510202948 | 76 | 178 | 1.0 | 8.0 | 0.00 | 0.00 | 0.00 | 59 | 1018.8 |
| 20260510202921 | 75 | 192 | 1.0 | 8.0 | 0.00 | 0.00 | 0.00 | 59 | 1018.8 |
| 20260510202908 | 75 | 182 | 1.0 | 8.0 | 0.00 | 0.00 | 0.00 | 59 | 1018.8 |
| 20260510202641 | 75 | 234 | 1.0 | 8.0 | 0.00 | 0.00 | 0.00 | 57 | 1018.8 |
| 20260510202541 | 75 | 344 | 0.0 | 4.0 | 0.00 | 0.00 | 0.00 | 58 | 1018.8 |
| 20260510202442 | 75 | 175 | 0.0 | 4.0 | 0.00 | 0.00 | 0.00 | 56 | 1018.8 |
| 20260510202341 | 75 | 200 | 0.0 | 4.0 | 0.00 | 0.00 | 0.00 | 56 | 1018.9 |
| 20260510202241 | 75 | 238 | 0.0 | 0.0 | 0.00 | 0.00 | 0.00 | 54 | 1018.9 |
| 20260510202133 | 75 | 238 | 0.0 | 3.0 | 0.00 | 0.00 | 0.00 | 52 | 1018.8 |
| 20260510202032 | 75 | 242 | 0.0 | 3.0 | 0.00 | 0.00 | 0.00 | 52 | 1018.9 |
| 20260510201931 | 75 | 242 | 1.0 | 3.0 | 0.00 | 0.00 | 0.00 | 52 | 1018.9 |
| 20260510201832 | 75 | 242 | 1.0 | 5.0 | 0.00 | 0.00 | 0.00 | 51 | 1018.9 |
| 20260510201728 | 76 | 242 | 1.0 | 5.0 | 0.00 | 0.00 | 0.00 | 50 | 1018.9 |
| 20260510201624 | 76 | 242 | 1.0 | 5.0 | 0.00 | 0.00 | 0.00 | 53 | 1018.8 |
| 20260510201522 | 76 | 242 | 1.0 | 5.0 | 0.00 | 0.00 | 0.00 | 52 | 1018.9 |
| 20260510201423 | 76 | 242 | 2.0 | 5.0 | 0.00 | 0.00 | 0.00 | 51 | 1018.9 |
| 20260510201322 | 76 | 242 | 2.0 | 5.0 | 0.00 | 0.00 | 0.00 | 52 | 1018.9 |
| 20260510201219 | 76 | 242 | 2.0 | 5.0 | 0.00 | 0.00 | 0.00 | 51 | 1018.8 |
| 20260510201144 | 76 | 222 | 2.0 | 5.0 | 0.00 | 0.00 | 0.00 | 50 | 1019.0 |
| 20260510201134 | 76 | 225 | 2.0 | 5.0 | 0.00 | 0.00 | 0.00 | 50 | 1018.9 |
| 20260510200913 | 76 | 221 | 2.0 | 5.0 | 0.00 | 0.00 | 0.00 | 50 | 1019.0 |
| 20260510200813 | 77 | 182 | 1.0 | 4.0 | 0.00 | 0.00 | 0.00 | 48 | 1019.0 |
| 20260510200715 | 77 | 327 | 2.0 | 4.0 | 0.00 | 0.00 | 0.00 | 47 | 1019.0 |
| 20260510200611 | 77 | 326 | 1.0 | 8.0 | 0.00 | 0.00 | 0.00 | 48 | 1019.1 |
| 20260510200509 | 78 | 186 | 2.0 | 8.0 | 0.00 | 0.00 | 0.00 | 49 | 1019.0 |
| 20260510200406 | 78 | 178 | 2.0 | 8.0 | 0.00 | 0.00 | 0.00 | 54 | 1019.1 |
| 20260510200352 | 77 | 167 | 2.0 | 8.0 | 0.00 | 0.00 | 0.00 | 54 | 1019.1 |
| 20260510200346 | 77 | 221 | 2.0 | 8.0 | 0.00 | 0.00 | 0.00 | 55 | 1019.0 |
| 20260510200341 | 77 | 221 | 2.0 | 8.0 | 0.00 | 0.00 | 0.00 | 53 | 1019.1 |
| 20260510200326 | 78 | 170 | 2.0 | 8.0 | 0.00 | 0.00 | 0.00 | 56 | 1019.0 |
| 20260510200307 | 78 | 161 | 2.0 | 8.0 | 0.00 | 0.00 | 0.00 | 57 | 1019.0 |
| 20260510195826 | 77 | 304 | 2.0 | 8.0 | 0.00 | 0.00 | 0.00 | 53 | 1019.1 |
| 20260510195706 | 77 | 244 | 2.0 | 8.0 | 0.00 | 0.00 | 0.00 | 51 | 1019.1 |
| 20260510195644 | 76 | 258 | 3.0 | 8.0 | 0.00 | 0.00 | 0.00 | 50 | 1019.1 |
| 20260510195638 | 77 | 207 | 3.0 | 8.0 | 0.00 | 0.00 | 0.00 | 53 | 1019.0 |
| 20260510195617 | 77 | 194 | 3.0 | 7.0 | 0.00 | 0.00 | 0.00 | 53 | 1019.1 |
| 20260510195557 | 77 | 196 | 3.0 | 8.0 | 0.00 | 0.00 | 0.00 | 51 | 1019.1 |
| 20260510195311 | 77 | 28 | 3.0 | 8.0 | 0.00 | 0.00 | 0.00 | 51 | 1019.1 |
| 20260510195048 | 76 | 263 | 2.0 | 8.0 | 0.00 | 0.00 | 0.00 | 53 | 1019.1 |
| 20260510195016 | 76 | 232 | 2.0 | 8.0 | 0.00 | 0.00 | 0.00 | 50 | 1019.0 |
| 20260510195006 | 76 | 232 | 2.0 | 8.0 | 0.00 | 0.00 | 0.00 | 51 | 1019.1 |
| 20260510194744 | 76 | 244 | 2.0 | 8.0 | 0.00 | 0.00 | 0.00 | 50 | 1019.1 |
| 20260510194643 | 76 | 249 | 2.0 | 8.0 | 0.00 | 0.00 | 0.00 | 48 | 1019.1 |
| 20260510194542 | 76 | 288 | 2.0 | 8.0 | 0.00 | 0.00 | 0.00 | 48 | 1019.1 |
| 20260510194440 | 76 | 310 | 2.0 | 8.0 | 0.00 | 0.00 | 0.00 | 49 | 1019.1 |
| 20260510194341 | 76 | 285 | 2.0 | 8.0 | 0.00 | 0.00 | 0.00 | 56 | 1019.0 |
| 20260510194240 | 76 | 70 | 3.0 | 8.0 | 0.00 | 0.00 | 0.00 | 54 | 1019.0 |
| 20260510194142 | 76 | 0 | 3.0 | 8.0 | 0.00 | 0.00 | 0.00 | 54 | 1019.0 |
| 20260510194041 | 76 | 0 | 3.0 | 8.0 | 0.00 | 0.00 | 0.00 | 50 | 1019.0 |
| 20260510193938 | 76 | 0 | 4.0 | 9.0 | 0.00 | 0.00 | 0.00 | 48 | 1019.1 |
| 20260510193839 | 76 | 0 | 4.0 | 9.0 | 0.00 | 0.00 | 0.00 | 48 | 1019.1 |
| 20260510193810 | 76 | 21 | 4.0 | 9.0 | 0.00 | 0.00 | 0.00 | 49 | 1019.2 |
| 20260510193758 | 76 | 0 | 4.0 | 9.0 | 0.00 | 0.00 | 0.00 | 47 | 1019.1 |
| 20260510193536 | 76 | 11 | 4.0 | 9.0 | 0.00 | 0.00 | 0.00 | 49 | 1019.1 |
| 20260510193437 | 76 | 335 | 3.0 | 9.0 | 0.00 | 0.00 | 0.00 | 48 | 1019.1 |
| 20260510193408 | 76 | 323 | 3.0 | 9.0 | 0.00 | 0.00 | 0.00 | 54 | 1019.2 |
| 20260510193354 | 76 | 355 | 3.0 | 9.0 | 0.00 | 0.00 | 0.00 | 50 | 1019.2 |
| 20260510193130 | 76 | 340 | 3.0 | 9.0 | 0.00 | 0.00 | 0.00 | 52 | 1019.2 |
| 20260510193029 | 76 | 15 | 3.0 | 9.0 | 0.00 | 0.00 | 0.00 | 51 | 1019.2 |
| 20260510192932 | 76 | 286 | 3.0 | 7.0 | 0.00 | 0.00 | 0.00 | 50 | 1019.2 |
| 20260510192858 | 75 | 51 | 3.0 | 7.0 | 0.00 | 0.00 | 0.00 | 53 | 1019.2 |
| 20260510192847 | 76 | 245 | 3.0 | 7.0 | 0.00 | 0.00 | 0.00 | 55 | 1019.1 |
| 20260510192625 | 75 | 283 | 3.0 | 7.0 | 0.00 | 0.00 | 0.00 | 52 | 1019.2 |
| 20260510192526 | 75 | 240 | 3.0 | 7.0 | 0.00 | 0.00 | 0.00 | 51 | 1019.2 |
| 20260510192424 | 75 | 280 | 3.0 | 7.0 | 0.00 | 0.00 | 0.00 | 52 | 1019.2 |
| 20260510192348 | 74 | 275 | 3.0 | 7.0 | 0.00 | 0.00 | 0.00 | 51 | 1019.2 |
| 20260510192343 | 74 | 250 | 3.0 | 7.0 | 0.00 | 0.00 | 0.00 | 50 | 1019.2 |
| 20260510192331 | 75 | 271 | 3.0 | 7.0 | 0.00 | 0.00 | 0.00 | 52 | 1019.2 |
| 20260510192311 | 75 | 342 | 3.0 | 7.0 | 0.00 | 0.00 | 0.00 | 51 | 1019.1 |
| 20260510192151 | 75 | 347 | 3.0 | 7.0 | 0.00 | 0.00 | 0.00 | 50 | 1019.2 |
| 20260510192126 | 74 | 318 | 3.0 | 7.0 | 0.00 | 0.00 | 0.00 | 51 | 1019.2 |
| 20260510192000 | 74 | 298 | 3.0 | 7.0 | 0.00 | 0.00 | 0.00 | 54 | 1019.2 |
| 20260510191620 | 74 | 261 | 3.0 | 7.0 | 0.00 | 0.00 | 0.00 | 51 | 1019.2 |
| 20260510191519 | 74 | 293 | 3.0 | 7.0 | 0.00 | 0.00 | 0.00 | 53 | 1019.2 |
| 20260510191447 | 75 | 261 | 3.0 | 10.0 | 0.00 | 0.00 | 0.00 | 53 | 1019.3 |
| 20260510191436 | 74 | 290 | 3.0 | 7.0 | 0.00 | 0.00 | 0.00 | 53 | 1019.2 |
| 20260510191411 | 74 | 285 | 3.0 | 8.0 | 0.00 | 0.00 | 0.00 | 52 | 1019.2 |
| 20260510191246 | 74 | 196 | 3.0 | 8.0 | 0.00 | 0.00 | 0.00 | 51 | 1019.2 |
| 20260510191020 | 75 | 262 | 3.0 | 10.0 | 0.00 | 0.00 | 0.00 | 51 | 1019.3 |
| 20260510190918 | 75 | 263 | 3.0 | 10.0 | 0.00 | 0.00 | 0.00 | 50 | 1019.3 |
| 20260510190818 | 75 | 254 | 3.0 | 10.0 | 0.00 | 0.00 | 0.00 | 50 | 1019.3 |
| 20260510190719 | 75 | 251 | 3.0 | 10.0 | 0.00 | 0.00 | 0.00 | 48 | 1019.3 |
| 20260510190618 | 75 | 340 | 3.0 | 10.0 | 0.00 | 0.00 | 0.00 | 49 | 1019.4 |
| 20260510190520 | 75 | 298 | 4.0 | 10.0 | 0.00 | 0.00 | 0.00 | 48 | 1019.3 |
| 20260510190419 | 75 | 299 | 4.0 | 10.0 | 0.00 | 0.00 | 0.00 | 48 | 1019.4 |
| 20260510190318 | 76 | 291 | 3.0 | 10.0 | 0.00 | 0.00 | 0.00 | 49 | 1019.4 |
| 20260510190218 | 76 | 277 | 3.0 | 10.0 | 0.00 | 0.00 | 0.00 | 52 | 1019.3 |
| 20260510190118 | 76 | 251 | 2.0 | 8.0 | 0.00 | 0.00 | 0.00 | 52 | 1019.4 |
| 20260510190050 | 75 | 169 | 2.0 | 8.0 | 0.00 | 0.00 | 0.00 | 50 | 1019.3 |
| 20260510190040 | 76 | 179 | 2.0 | 8.0 | 0.00 | 0.00 | 0.00 | 51 | 1019.4 |
| 20260510185819 | 75 | 169 | 2.0 | 8.0 | 0.00 | 0.00 | 0.00 | 51 | 1019.3 |
| 20260510185752 | 75 | 279 | 2.0 | 8.0 | 0.00 | 0.00 | 0.00 | 49 | 1019.4 |
| 20260510185740 | 75 | 215 | 2.0 | 8.0 | 0.00 | 0.00 | 0.00 | 53 | 1019.4 |
| 20260510185524 | 75 | 274 | 2.0 | 8.0 | 0.00 | 0.00 | 0.00 | 51 | 1019.5 |
| 20260510185423 | 75 | 210 | 2.0 | 5.0 | 0.00 | 0.00 | 0.00 | 55 | 1019.4 |
| 20260510185320 | 75 | 210 | 2.0 | 7.0 | 0.00 | 0.00 | 0.00 | 51 | 1019.4 |
| 20260510185219 | 75 | 207 | 2.0 | 7.0 | 0.00 | 0.00 | 0.00 | 52 | 1019.4 |
| 20260510185121 | 75 | 207 | 2.0 | 7.0 | 0.00 | 0.00 | 0.00 | 52 | 1019.5 |
| 20260510185006 | 75 | 293 | 2.0 | 7.0 | 0.00 | 0.00 | 0.00 | 52 | 1019.4 |
| 20260510184908 | 76 | 293 | 2.0 | 7.0 | 0.00 | 0.00 | 0.00 | 52 | 1019.4 |
| 20260510184806 | 76 | 293 | 2.0 | 7.0 | 0.00 | 0.00 | 0.00 | 51 | 1019.4 |
| 20260510184706 | 76 | 246 | 2.0 | 7.0 | 0.00 | 0.00 | 0.00 | 51 | 1019.4 |
| 20260510184624 | 76 | 284 | 2.0 | 11.0 | 0.00 | 0.00 | 0.00 | 55 | 1019.4 |
| 20260510184614 | 76 | 238 | 2.0 | 7.0 | 0.00 | 0.00 | 0.00 | 49 | 1019.4 |
| 20260510184553 | 76 | 152 | 2.0 | 7.0 | 0.00 | 0.00 | 0.00 | 49 | 1019.4 |
| 20260510184431 | 76 | 225 | 2.0 | 7.0 | 0.00 | 0.00 | 0.00 | 53 | 1019.5 |
| 20260510184207 | 76 | 231 | 2.0 | 11.0 | 0.00 | 0.00 | 0.00 | 56 | 1019.5 |
| 20260510184107 | 76 | 229 | 3.0 | 11.0 | 0.00 | 0.00 | 0.00 | 54 | 1019.4 |
| 20260510184042 | 76 | 229 | 3.0 | 11.0 | 0.00 | 0.00 | 0.00 | 50 | 1019.5 |
| 20260510184030 | 76 | 229 | 3.0 | 11.0 | 0.00 | 0.00 | 0.00 | 53 | 1019.5 |
| 20260510183808 | 76 | 228 | 3.0 | 11.0 | 0.00 | 0.00 | 0.00 | 53 | 1019.5 |
| 20260510183738 | 75 | 180 | 3.0 | 11.0 | 0.00 | 0.00 | 0.00 | 54 | 1019.6 |
| 20260510183728 | 76 | 186 | 3.0 | 11.0 | 0.00 | 0.00 | 0.00 | 53 | 1019.6 |
| 20260510183538 | 75 | 240 | 3.0 | 11.0 | 0.00 | 0.00 | 0.00 | 52 | 1019.6 |
| 20260510183529 | 75 | 237 | 3.0 | 11.0 | 0.00 | 0.00 | 0.00 | 54 | 1019.5 |
| 20260510183306 | 75 | 230 | 3.0 | 9.0 | 0.00 | 0.00 | 0.00 | 49 | 1019.5 |
| 20260510183206 | 76 | 212 | 3.0 | 9.0 | 0.00 | 0.00 | 0.00 | 52 | 1019.6 |
| 20260510183106 | 76 | 183 | 3.0 | 9.0 | 0.00 | 0.00 | 0.00 | 53 | 1019.6 |
| 20260510183006 | 76 | 172 | 3.0 | 9.0 | 0.00 | 0.00 | 0.00 | 53 | 1019.6 |
| 20260510182907 | 76 | 188 | 2.0 | 6.0 | 0.00 | 0.00 | 0.00 | 52 | 1019.5 |
| 20260510182806 | 76 | 191 | 2.0 | 6.0 | 0.00 | 0.00 | 0.00 | 53 | 1019.5 |
| 20260510182707 | 76 | 174 | 2.0 | 7.0 | 0.00 | 0.00 | 0.00 | 53 | 1019.5 |
| 20260510182606 | 76 | 331 | 2.0 | 7.0 | 0.00 | 0.00 | 0.00 | 52 | 1019.6 |
| 20260510182508 | 76 | 331 | 2.0 | 8.0 | 0.00 | 0.00 | 0.00 | 50 | 1019.6 |
| 20260510182402 | 76 | 355 | 2.0 | 8.0 | 0.00 | 0.00 | 0.00 | 53 | 1019.7 |
| 20260510182306 | 76 | 218 | 3.0 | 8.0 | 0.00 | 0.00 | 0.00 | 53 | 1019.7 |
| 20260510182231 | 75 | 236 | 3.0 | 8.0 | 0.00 | 0.00 | 0.00 | 51 | 1019.6 |
| 20260510182222 | 76 | 227 | 3.0 | 8.0 | 0.00 | 0.00 | 0.00 | 54 | 1019.7 |
| 20260510182003 | 75 | 223 | 3.0 | 8.0 | 0.00 | 0.00 | 0.00 | 52 | 1019.6 |
| 20260510181934 | 75 | 258 | 3.0 | 8.0 | 0.00 | 0.00 | 0.00 | 54 | 1019.7 |
| 20260510181923 | 75 | 264 | 3.0 | 8.0 | 0.00 | 0.00 | 0.00 | 50 | 1019.7 |
| 20260510181700 | 75 | 225 | 3.0 | 8.0 | 0.00 | 0.00 | 0.00 | 53 | 1019.7 |
| 20260510181635 | 74 | 193 | 4.0 | 8.0 | 0.00 | 0.00 | 0.00 | 52 | 1019.6 |
| 20260510181623 | 75 | 217 | 3.0 | 7.0 | 0.00 | 0.00 | 0.00 | 56 | 1019.6 |
| 20260510181558 | 75 | 232 | 3.0 | 7.0 | 0.00 | 0.00 | 0.00 | 55 | 1019.7 |
| 20260510181433 | 75 | 200 | 3.0 | 7.0 | 0.00 | 0.00 | 0.00 | 55 | 1019.6 |
| 20260510181403 | 75 | 221 | 3.0 | 7.0 | 0.00 | 0.00 | 0.00 | 56 | 1019.6 |
| 20260510181250 | 75 | 194 | 3.0 | 7.0 | 0.00 | 0.00 | 0.00 | 53 | 1019.6 |
| 20260510181245 | 74 | 210 | 3.0 | 7.0 | 0.00 | 0.00 | 0.00 | 54 | 1019.6 |
| 20260510181241 | 74 | 303 | 3.0 | 7.0 | 0.00 | 0.00 | 0.00 | 51 | 1019.6 |
| 20260510181228 | 75 | 194 | 3.0 | 7.0 | 0.00 | 0.00 | 0.00 | 53 | 1019.6 |
| 20260510181042 | 74 | 220 | 3.0 | 7.0 | 0.00 | 0.00 | 0.00 | 55 | 1019.7 |
| 20260510180744 | 74 | 5 | 3.0 | 7.0 | 0.00 | 0.00 | 0.00 | 52 | 1019.6 |
| 20260510180619 | 74 | 195 | 3.0 | 8.0 | 0.00 | 0.00 | 0.00 | 53 | 1019.7 |
| 20260510180359 | 74 | 225 | 4.0 | 8.0 | 0.00 | 0.00 | 0.00 | 53 | 1019.6 |
| 20260510180258 | 74 | 197 | 4.0 | 8.0 | 0.00 | 0.00 | 0.00 | 56 | 1019.6 |
| 20260510180227 | 74 | 254 | 3.0 | 8.0 | 0.00 | 0.00 | 0.00 | 56 | 1019.6 |
| 20260510180133 | 74 | 317 | 3.0 | 8.0 | 0.00 | 0.00 | 0.00 | 51 | 1019.7 |
| 20260510180121 | 74 | 250 | 3.0 | 8.0 | 0.00 | 0.00 | 0.00 | 52 | 1019.7 |
| 20260510175858 | 74 | 317 | 3.0 | 8.0 | 0.00 | 0.00 | 0.00 | 50 | 1019.7 |
| 20260510175759 | 74 | 288 | 3.0 | 8.0 | 0.00 | 0.00 | 0.00 | 52 | 1019.8 |
| 20260510175659 | 74 | 300 | 3.0 | 8.0 | 0.00 | 0.00 | 0.00 | 51 | 1019.8 |
| 20260510175600 | 74 | 237 | 3.0 | 8.0 | 0.00 | 0.00 | 0.00 | 52 | 1019.8 |
| 20260510175459 | 74 | 246 | 3.0 | 8.0 | 0.00 | 0.00 | 0.00 | 55 | 1019.8 |
| 20260510175358 | 74 | 213 | 3.0 | 8.0 | 0.00 | 0.00 | 0.00 | 57 | 1019.7 |
| 20260510175258 | 74 | 288 | 3.0 | 8.0 | 0.00 | 0.00 | 0.00 | 57 | 1019.7 |
| 20260510175200 | 74 | 182 | 2.0 | 8.0 | 0.00 | 0.00 | 0.00 | 56 | 1019.6 |
| 20260510175100 | 73 | 326 | 2.0 | 8.0 | 0.00 | 0.00 | 0.00 | 56 | 1019.6 |
| 20260510174958 | 73 | 329 | 2.0 | 8.0 | 0.00 | 0.00 | 0.00 | 56 | 1019.8 |
| 20260510174858 | 74 | 355 | 2.0 | 8.0 | 0.00 | 0.00 | 0.00 | 52 | 1019.7 |
| 20260510174758 | 74 | 314 | 2.0 | 8.0 | 0.00 | 0.00 | 0.00 | 54 | 1019.8 |
| 20260510174700 | 74 | 265 | 2.0 | 7.0 | 0.00 | 0.00 | 0.00 | 57 | 1019.7 |
| 20260510174558 | 74 | 24 | 2.0 | 7.0 | 0.00 | 0.00 | 0.00 | 55 | 1019.7 |
| 20260510174457 | 74 | 169 | 2.0 | 6.0 | 0.00 | 0.00 | 0.00 | 56 | 1019.8 |
| 20260510174354 | 73 | 290 | 2.0 | 5.0 | 0.00 | 0.00 | 0.00 | 54 | 1019.7 |
| 20260510174255 | 73 | 282 | 2.0 | 5.0 | 0.00 | 0.00 | 0.00 | 54 | 1019.8 |
| 20260510174152 | 73 | 278 | 3.0 | 6.0 | 0.00 | 0.00 | 0.00 | 54 | 1019.7 |
| 20260510174123 | 74 | 278 | 3.0 | 7.0 | 0.00 | 0.00 | 0.00 | 52 | 1019.7 |
| 20260510174113 | 73 | 278 | 3.0 | 7.0 | 0.00 | 0.00 | 0.00 | 54 | 1019.7 |
| 20260510173848 | 74 | 278 | 3.0 | 7.0 | 0.00 | 0.00 | 0.00 | 51 | 1019.8 |
| 20260510173746 | 74 | 313 | 3.0 | 7.0 | 0.00 | 0.00 | 0.00 | 51 | 1019.7 |
| 20260510173647 | 74 | 287 | 3.0 | 7.0 | 0.00 | 0.00 | 0.00 | 53 | 1019.8 |
| 20260510173617 | 74 | 329 | 3.0 | 8.0 | 0.00 | 0.00 | 0.00 | 55 | 1019.8 |
| 20260510173607 | 74 | 265 | 3.0 | 7.0 | 0.00 | 0.00 | 0.00 | 52 | 1019.8 |
| 20260510173405 | 73 | 245 | 3.0 | 8.0 | 0.00 | 0.00 | 0.00 | 54 | 1019.8 |
| 20260510173354 | 74 | 344 | 3.0 | 8.0 | 0.00 | 0.00 | 0.00 | 54 | 1019.8 |
| 20260510173133 | 73 | 233 | 3.0 | 8.0 | 0.00 | 0.00 | 0.00 | 53 | 1019.8 |
| 20260510173033 | 73 | 196 | 3.0 | 8.0 | 0.00 | 0.00 | 0.00 | 54 | 1019.9 |
| 20260510173002 | 73 | 330 | 4.0 | 10.0 | 0.00 | 0.00 | 0.00 | 52 | 1019.9 |
| 20260510172952 | 73 | 236 | 3.0 | 8.0 | 0.00 | 0.00 | 0.00 | 56 | 1019.9 |
| 20260510172733 | 73 | 239 | 4.0 | 10.0 | 0.00 | 0.00 | 0.00 | 53 | 1019.9 |
| 20260510172631 | 73 | 290 | 4.0 | 10.0 | 0.00 | 0.00 | 0.00 | 53 | 1020.1 |
| 20260510172529 | 74 | 300 | 3.0 | 10.0 | 0.00 | 0.00 | 0.00 | 52 | 1019.9 |
| 20260510172431 | 74 | 286 | 3.0 | 10.0 | 0.00 | 0.00 | 0.00 | 51 | 1019.9 |
| 20260510172356 | 73 | 351 | 3.0 | 10.0 | 0.00 | 0.00 | 0.00 | 51 | 1020.1 |
| 20260510172341 | 74 | 221 | 3.0 | 10.0 | 0.00 | 0.00 | 0.00 | 54 | 1020.1 |
| 20260510172320 | 74 | 196 | 3.0 | 10.0 | 0.00 | 0.00 | 0.00 | 53 | 1020.1 |
| 20260510172156 | 73 | 299 | 3.0 | 10.0 | 0.00 | 0.00 | 0.00 | 52 | 1020.1 |
| 20260510171930 | 73 | 311 | 3.0 | 10.0 | 0.00 | 0.00 | 0.00 | 51 | 1020.2 |
| 20260510171828 | 73 | 271 | 3.0 | 8.0 | 0.00 | 0.00 | 0.00 | 55 | 1020.2 |
| 20260510171727 | 73 | 5 | 3.0 | 8.0 | 0.00 | 0.00 | 0.00 | 51 | 1020.2 |
| 20260510171627 | 73 | 13 | 3.0 | 8.0 | 0.00 | 0.00 | 0.00 | 56 | 1020.2 |
| 20260510171520 | 73 | 273 | 3.0 | 10.0 | 0.00 | 0.00 | 0.00 | 55 | 1020.2 |
| 20260510171422 | 73 | 250 | 3.0 | 10.0 | 0.00 | 0.00 | 0.00 | 54 | 1020.2 |
| 20260510171321 | 73 | 249 | 3.0 | 10.0 | 0.00 | 0.00 | 0.00 | 57 | 1020.1 |
| 20260510171220 | 74 | 284 | 3.0 | 10.0 | 0.00 | 0.00 | 0.00 | 52 | 1019.9 |
| 20260510171200 | 73 | 248 | 2.0 | 10.0 | 0.00 | 0.00 | 0.00 | 58 | 1019.8 |
| 20260510171155 | 74 | 265 | 2.0 | 10.0 | 0.00 | 0.00 | 0.00 | 54 | 1019.9 |
| 20260510171138 | 74 | 283 | 2.0 | 10.0 | 0.00 | 0.00 | 0.00 | 56 | 1019.9 |
| 20260510171121 | 74 | 302 | 2.0 | 10.0 | 0.00 | 0.00 | 0.00 | 55 | 1019.8 |
| 20260510170839 | 74 | 287 | 2.0 | 10.0 | 0.00 | 0.00 | 0.00 | 56 | 1019.9 |
| 20260510170609 | 73 | 226 | 2.0 | 10.0 | 0.00 | 0.00 | 0.00 | 57 | 1019.8 |
| 20260510170509 | 73 | 226 | 2.0 | 8.0 | 0.00 | 0.00 | 0.00 | 57 | 1019.7 |
| 20260510170407 | 73 | 226 | 2.0 | 8.0 | 0.00 | 0.00 | 0.00 | 57 | 1019.7 |
| 20260510170307 | 73 | 114 | 2.0 | 8.0 | 0.00 | 0.00 | 0.00 | 57 | 1019.8 |
| 20260510170205 | 73 | 207 | 3.0 | 8.0 | 0.00 | 0.00 | 0.00 | 59 | 1019.8 |
| 20260510170159 | 73 | 168 | 3.0 | 8.0 | 0.00 | 0.00 | 0.00 | 56 | 1019.7 |
| 20260510170141 | 73 | 207 | 3.0 | 8.0 | 0.00 | 0.00 | 0.00 | 56 | 1019.8 |
| 20260510170021 | 73 | 213 | 3.0 | 8.0 | 0.00 | 0.00 | 0.00 | 57 | 1019.8 |
| 20260510165831 | 73 | 210 | 4.0 | 8.0 | 0.00 | 0.00 | 0.00 | 59 | 1019.7 |
| 20260510165820 | 73 | 188 | 3.0 | 8.0 | 0.00 | 0.00 | 0.00 | 56 | 1019.7 |
| 20260510165628 | 73 | 236 | 4.0 | 8.0 | 0.00 | 0.00 | 0.00 | 58 | 1019.7 |
| 20260510165617 | 73 | 234 | 4.0 | 8.0 | 0.00 | 0.00 | 0.00 | 57 | 1019.7 |
| 20260510165357 | 73 | 213 | 4.0 | 8.0 | 0.00 | 0.00 | 0.00 | 54 | 1019.7 |
| 20260510165256 | 73 | 213 | 4.0 | 8.0 | 0.00 | 0.00 | 0.00 | 53 | 1019.7 |
| 20260510165156 | 73 | 200 | 3.0 | 8.0 | 0.00 | 0.00 | 0.00 | 52 | 1019.7 |
| 20260510165057 | 73 | 267 | 3.0 | 8.0 | 0.00 | 0.00 | 0.00 | 53 | 1019.7 |
| 20260510164956 | 73 | 190 | 3.0 | 8.0 | 0.00 | 0.00 | 0.00 | 55 | 1019.7 |
| 20260510164856 | 73 | 200 | 3.0 | 8.0 | 0.00 | 0.00 | 0.00 | 56 | 1019.7 |
| 20260510164756 | 73 | 209 | 3.0 | 8.0 | 0.00 | 0.00 | 0.00 | 56 | 1019.7 |
| 20260510164733 | 73 | 202 | 2.0 | 8.0 | 0.00 | 0.00 | 0.00 | 59 | 1019.7 |
| 20260510164720 | 73 | 210 | 2.0 | 7.0 | 0.00 | 0.00 | 0.00 | 60 | 1019.7 |
| 20260510164454 | 73 | 249 | 2.0 | 8.0 | 0.00 | 0.00 | 0.00 | 56 | 1019.7 |
| 20260510164350 | 73 | 244 | 2.0 | 8.0 | 0.00 | 0.00 | 0.00 | 57 | 1019.7 |
| 20260510164250 | 73 | 187 | 2.0 | 8.0 | 0.00 | 0.00 | 0.00 | 57 | 1019.8 |
| 20260510164150 | 72 | 218 | 2.0 | 8.0 | 0.00 | 0.00 | 0.00 | 56 | 1019.8 |
| 20260510164049 | 72 | 212 | 3.0 | 8.0 | 0.00 | 0.00 | 0.00 | 57 | 1019.8 |
| 20260510164002 | 72 | 209 | 2.0 | 8.0 | 0.00 | 0.00 | 0.00 | 61 | 1019.9 |
| 20260510163951 | 72 | 211 | 2.0 | 8.0 | 0.00 | 0.00 | 0.00 | 57 | 1019.9 |
| 20260510163929 | 72 | 244 | 2.0 | 8.0 | 0.00 | 0.00 | 0.00 | 55 | 1019.9 |
| 20260510163809 | 72 | 200 | 2.0 | 8.0 | 0.00 | 0.00 | 0.00 | 59 | 1019.9 |
| 20260510163545 | 73 | 190 | 2.0 | 7.0 | 0.00 | 0.00 | 0.00 | 63 | 1019.8 |
| 20260510163453 | 72 | 242 | 2.0 | 7.0 | 0.00 | 0.00 | 0.00 | 67 | 1019.8 |
| 20260510163341 | 72 | 196 | 2.0 | 7.0 | 0.00 | 0.00 | 0.00 | 64 | 1019.8 |
| 20260510163240 | 72 | 192 | 2.0 | 7.0 | 0.00 | 0.00 | 0.00 | 64 | 1019.8 |
| 20260510163211 | 72 | 203 | 2.0 | 7.0 | 0.00 | 0.00 | 0.00 | 64 | 1019.7 |
| 20260510163201 | 72 | 196 | 2.0 | 7.0 | 0.00 | 0.00 | 0.00 | 65 | 1019.8 |
| 20260510162940 | 72 | 239 | 2.0 | 7.0 | 0.00 | 0.00 | 0.00 | 68 | 1019.8 |
| 20260510162840 | 72 | 238 | 2.0 | 7.0 | 0.00 | 0.00 | 0.00 | 64 | 1019.8 |
| 20260510162738 | 72 | 231 | 2.0 | 7.0 | 0.00 | 0.00 | 0.00 | 65 | 1019.8 |
| 20260510162638 | 72 | 243 | 2.0 | 7.0 | 0.00 | 0.00 | 0.00 | 64 | 1019.7 |
| 20260510162537 | 72 | 227 | 2.0 | 7.0 | 0.00 | 0.00 | 0.00 | 65 | 1019.7 |
| 20260510162434 | 72 | 229 | 2.0 | 7.0 | 0.00 | 0.00 | 0.00 | 61 | 1019.8 |
| 20260510162335 | 72 | 225 | 2.0 | 7.0 | 0.00 | 0.00 | 0.00 | 69 | 1019.8 |
| 20260510162234 | 71 | 203 | 2.0 | 7.0 | 0.00 | 0.00 | 0.00 | 68 | 1019.8 |
| 20260510162131 | 71 | 203 | 2.0 | 7.0 | 0.00 | 0.00 | 0.00 | 69 | 1019.8 |
| 20260510162032 | 71 | 229 | 2.0 | 7.0 | 0.00 | 0.00 | 0.00 | 68 | 1019.8 |
| 20260510161931 | 71 | 231 | 2.0 | 7.0 | 0.00 | 0.00 | 0.00 | 66 | 1019.7 |
| 20260510161830 | 71 | 188 | 2.0 | 9.0 | 0.00 | 0.00 | 0.00 | 67 | 1019.8 |
| 20260510161814 | 71 | 224 | 2.0 | 9.0 | 0.00 | 0.00 | 0.00 | 65 | 1019.8 |
| 20260510161801 | 71 | 188 | 2.0 | 9.0 | 0.00 | 0.00 | 0.00 | 64 | 1019.8 |
| 20260510161530 | 71 | 248 | 2.0 | 9.0 | 0.00 | 0.00 | 0.00 | 65 | 1019.7 |
| 20260510161429 | 71 | 248 | 3.0 | 9.0 | 0.00 | 0.00 | 0.00 | 65 | 1019.8 |
| 20260510161326 | 71 | 200 | 3.0 | 9.0 | 0.00 | 0.00 | 0.00 | 66 | 1019.7 |
| 20260510161224 | 71 | 145 | 3.0 | 9.0 | 0.00 | 0.00 | 0.00 | 69 | 1019.8 |
| 20260510161126 | 71 | 275 | 3.0 | 9.0 | 0.00 | 0.00 | 0.00 | 66 | 1019.8 |
| 20260510161051 | 71 | 192 | 3.0 | 8.0 | 0.00 | 0.00 | 0.00 | 67 | 1019.8 |
| 20260510161045 | 71 | 198 | 3.0 | 8.0 | 0.00 | 0.00 | 0.00 | 69 | 1019.8 |
| 20260510161034 | 71 | 275 | 3.0 | 9.0 | 0.00 | 0.00 | 0.00 | 63 | 1019.8 |
| 20260510161004 | 71 | 205 | 3.0 | 9.0 | 0.00 | 0.00 | 0.00 | 63 | 1019.8 |
| 20260510160621 | 71 | 247 | 3.0 | 8.0 | 0.00 | 0.00 | 0.00 | 71 | 1019.8 |
| 20260510160554 | 71 | 240 | 3.0 | 8.0 | 0.00 | 0.00 | 0.00 | 71 | 1019.7 |
| 20260510160542 | 71 | 231 | 3.0 | 8.0 | 0.00 | 0.00 | 0.00 | 71 | 1019.8 |
| 20260510160355 | 71 | 236 | 3.0 | 7.0 | 0.00 | 0.00 | 0.00 | 69 | 1019.8 |
| 20260510160350 | 71 | 245 | 3.0 | 8.0 | 0.00 | 0.00 | 0.00 | 69 | 1019.8 |
| 20260510160345 | 71 | 202 | 2.0 | 7.0 | 0.00 | 0.00 | 0.00 | 70 | 1019.8 |
| 20260510160334 | 71 | 177 | 3.0 | 8.0 | 0.00 | 0.00 | 0.00 | 69 | 1019.8 |
| 20260510160316 | 71 | 269 | 3.0 | 8.0 | 0.00 | 0.00 | 0.00 | 67 | 1019.8 |
| 20260510160133 | 71 | 219 | 3.0 | 7.0 | 0.00 | 0.00 | 0.00 | 68 | 1019.8 |
| 20260510155813 | 71 | 236 | 3.0 | 7.0 | 0.00 | 0.00 | 0.00 | 69 | 1019.8 |
| 20260510155751 | 71 | 286 | 2.0 | 7.0 | 0.00 | 0.00 | 0.00 | 73 | 1019.8 |
| 20260510155738 | 71 | 190 | 3.0 | 7.0 | 0.00 | 0.00 | 0.00 | 72 | 1019.8 |
| 20260510155508 | 71 | 290 | 2.0 | 7.0 | 0.00 | 0.00 | 0.00 | 71 | 1019.8 |
| 20260510155408 | 70 | 223 | 2.0 | 7.0 | 0.00 | 0.00 | 0.00 | 71 | 1019.8 |
| 20260510155308 | 70 | 206 | 3.0 | 7.0 | 0.00 | 0.00 | 0.00 | 70 | 1019.8 |
| 20260510155240 | 70 | 188 | 3.0 | 7.0 | 0.00 | 0.00 | 0.00 | 69 | 1019.8 |
| 20260510155231 | 70 | 252 | 3.0 | 7.0 | 0.00 | 0.00 | 0.00 | 71 | 1019.8 |
| 20260510155007 | 70 | 189 | 3.0 | 7.0 | 0.00 | 0.00 | 0.00 | 68 | 1019.8 |
| 20260510154906 | 70 | 242 | 3.0 | 8.0 | 0.00 | 0.00 | 0.00 | 66 | 1019.7 |
| 20260510154837 | 70 | 223 | 3.0 | 8.0 | 0.00 | 0.00 | 0.00 | 65 | 1019.8 |
| 20260510154705 | 70 | 167 | 3.0 | 8.0 | 0.00 | 0.00 | 0.00 | 65 | 1019.7 |
| 20260510154607 | 69 | 167 | 3.0 | 8.0 | 0.00 | 0.00 | 0.00 | 70 | 1019.7 |
| 20260510154505 | 69 | 305 | 3.0 | 8.0 | 0.00 | 0.00 | 0.00 | 66 | 1019.8 |
| 20260510154400 | 69 | 267 | 3.0 | 8.0 | 0.00 | 0.00 | 0.00 | 66 | 1019.7 |
| 20260510154259 | 69 | 221 | 3.0 | 8.0 | 0.00 | 0.00 | 0.00 | 65 | 1019.8 |
| 20260510154159 | 69 | 296 | 3.0 | 8.0 | 0.00 | 0.00 | 0.00 | 65 | 1019.7 |
| 20260510154141 | 69 | 211 | 2.0 | 8.0 | 0.00 | 0.00 | 0.00 | 72 | 1019.8 |
| 20260510154128 | 69 | 209 | 2.0 | 8.0 | 0.00 | 0.00 | 0.00 | 69 | 1019.8 |
| 20260510153857 | 69 | 167 | 2.0 | 6.0 | 0.00 | 0.00 | 0.00 | 68 | 1019.8 |
| 20260510153823 | 69 | 271 | 3.0 | 7.0 | 0.00 | 0.00 | 0.00 | 70 | 1019.9 |
| 20260510153818 | 69 | 271 | 3.0 | 7.0 | 0.00 | 0.00 | 0.00 | 70 | 1019.8 |
| 20260510153808 | 69 | 165 | 3.0 | 6.0 | 0.00 | 0.00 | 0.00 | 67 | 1019.8 |
| 20260510153747 | 69 | 299 | 3.0 | 6.0 | 0.00 | 0.00 | 0.00 | 74 | 1019.9 |
| 20260510153627 | 69 | 265 | 3.0 | 7.0 | 0.00 | 0.00 | 0.00 | 72 | 1019.9 |
| 20260510153329 | 69 | 203 | 3.0 | 7.0 | 0.00 | 0.00 | 0.00 | 72 | 1019.9 |
| 20260510153319 | 69 | 277 | 3.0 | 7.0 | 0.00 | 0.00 | 0.00 | 73 | 1019.9 |
| 20260510153055 | 69 | 203 | 3.0 | 7.0 | 0.00 | 0.00 | 0.00 | 72 | 1019.9 |
| 20260510153035 | 69 | 208 | 3.0 | 7.0 | 0.00 | 0.00 | 0.00 | 73 | 1020.1 |
| 20260510153024 | 69 | 207 | 3.0 | 7.0 | 0.00 | 0.00 | 0.00 | 71 | 1019.9 |
| 20260510152758 | 69 | 191 | 3.0 | 7.0 | 0.00 | 0.00 | 0.00 | 74 | 1019.9 |
| 20260510152653 | 69 | 215 | 3.0 | 7.0 | 0.00 | 0.00 | 0.00 | 73 | 1019.9 |
| 20260510152551 | 69 | 218 | 3.0 | 7.0 | 0.00 | 0.00 | 0.00 | 74 | 1020.1 |
| 20260510152451 | 69 | 185 | 3.0 | 7.0 | 0.00 | 0.00 | 0.00 | 74 | 1019.8 |
| 20260510152352 | 69 | 219 | 3.0 | 6.0 | 0.00 | 0.00 | 0.00 | 76 | 1019.9 |
| 20260510152345 | 68 | 204 | 3.0 | 7.0 | 0.00 | 0.00 | 0.00 | 74 | 1019.9 |
| 20260510152341 | 68 | 181 | 3.0 | 7.0 | 0.00 | 0.00 | 0.00 | 75 | 1019.8 |
| 20260510152323 | 69 | 201 | 3.0 | 7.0 | 0.00 | 0.00 | 0.00 | 76 | 1019.9 |
| 20260510151946 | 68 | 301 | 2.0 | 7.0 | 0.00 | 0.00 | 0.00 | 76 | 1019.8 |
| 20260510151919 | 68 | 211 | 3.0 | 8.0 | 0.00 | 0.00 | 0.00 | 77 | 1019.8 |
| 20260510151909 | 68 | 224 | 3.0 | 8.0 | 0.00 | 0.00 | 0.00 | 77 | 1019.9 |
| 20260510151636 | 68 | 211 | 2.0 | 8.0 | 0.00 | 0.00 | 0.00 | 77 | 1019.9 |
| 20260510151617 | 68 | 200 | 3.0 | 9.0 | 0.00 | 0.00 | 0.00 | 79 | 1019.9 |
| 20260510151605 | 68 | 238 | 3.0 | 9.0 | 0.00 | 0.00 | 0.00 | 78 | 1019.9 |
| 20260510151336 | 68 | 190 | 2.0 | 9.0 | 0.00 | 0.00 | 0.00 | 79 | 1019.8 |
| 20260510151235 | 69 | 198 | 2.0 | 9.0 | 0.00 | 0.00 | 0.00 | 81 | 1019.8 |
| 20260510151158 | 68 | 203 | 3.0 | 9.0 | 0.00 | 0.00 | 0.00 | 81 | 1019.9 |
| 20260510151149 | 69 | 203 | 2.0 | 9.0 | 0.00 | 0.00 | 0.00 | 82 | 1019.8 |
| 20260510150928 | 68 | 267 | 3.0 | 9.0 | 0.00 | 0.00 | 0.00 | 79 | 1019.8 |
| 20260510150844 | 68 | 298 | 3.0 | 9.0 | 0.00 | 0.00 | 0.00 | 78 | 1019.8 |
| 20260510150736 | 68 | 312 | 3.0 | 9.0 | 0.00 | 0.00 | 0.00 | 77 | 1019.8 |
| 20260510150720 | 68 | 294 | 2.0 | 8.0 | 0.00 | 0.00 | 0.00 | 81 | 1019.8 |
| 20260510150706 | 68 | 297 | 2.0 | 8.0 | 0.00 | 0.00 | 0.00 | 85 | 1019.8 |
| 20260510150645 | 68 | 232 | 3.0 | 9.0 | 0.00 | 0.00 | 0.00 | 82 | 1019.8 |
| 20260510150621 | 68 | 303 | 2.0 | 9.0 | 0.00 | 0.00 | 0.00 | 81 | 1019.8 |
| 20260510150223 | 68 | 292 | 3.0 | 8.0 | 0.00 | 0.00 | 0.00 | 85 | 1019.7 |
| 20260510150147 | 67 | 290 | 3.0 | 8.0 | 0.00 | 0.00 | 0.00 | 86 | 1019.7 |
| 20260510150141 | 67 | 273 | 3.0 | 8.0 | 0.00 | 0.00 | 0.00 | 85 | 1019.8 |
| 20260510150129 | 68 | 290 | 3.0 | 8.0 | 0.00 | 0.00 | 0.00 | 84 | 1019.8 |
| 20260510150103 | 68 | 291 | 3.0 | 8.0 | 0.00 | 0.00 | 0.00 | 85 | 1019.7 |
| 20260510145715 | 67 | 275 | 3.0 | 8.0 | 0.00 | 0.00 | 0.00 | 85 | 1019.8 |
| 20260510145645 | 67 | 268 | 3.0 | 8.0 | 0.00 | 0.00 | 0.00 | 85 | 1019.8 |
| 20260510145636 | 67 | 221 | 3.0 | 8.0 | 0.00 | 0.00 | 0.00 | 86 | 1019.8 |
| 20260510145411 | 67 | 219 | 3.0 | 8.0 | 0.00 | 0.00 | 0.00 | 85 | 1019.8 |
| 20260510145312 | 67 | 236 | 3.0 | 8.0 | 0.00 | 0.00 | 0.00 | 84 | 1019.8 |
| 20260510145212 | 67 | 196 | 3.0 | 8.0 | 0.00 | 0.00 | 0.00 | 86 | 1019.8 |
| 20260510145111 | 67 | 348 | 3.0 | 8.0 | 0.00 | 0.00 | 0.00 | 86 | 1019.8 |
| 20260510145012 | 67 | 241 | 3.0 | 8.0 | 0.00 | 0.00 | 0.00 | 85 | 1019.8 |
| 20260510144914 | 67 | 331 | 3.0 | 8.0 | 0.00 | 0.00 | 0.00 | 86 | 1019.7 |
| 20260510144810 | 67 | 244 | 3.0 | 8.0 | 0.00 | 0.00 | 0.00 | 87 | 1019.7 |
| 20260510144711 | 67 | 318 | 2.0 | 8.0 | 0.00 | 0.00 | 0.00 | 88 | 1019.8 |
| 20260510144609 | 66 | 208 | 3.0 | 8.0 | 0.00 | 0.00 | 0.00 | 88 | 1019.7 |
| 20260510144511 | 66 | 256 | 3.0 | 8.0 | 0.00 | 0.00 | 0.00 | 87 | 1019.7 |
| 20260510144411 | 66 | 257 | 3.0 | 8.0 | 0.00 | 0.00 | 0.00 | 86 | 1019.7 |
| 20260510144308 | 66 | 285 | 3.0 | 8.0 | 0.00 | 0.00 | 0.00 | 87 | 1019.7 |
| 20260510144240 | 66 | 296 | 3.0 | 8.0 | 0.00 | 0.00 | 0.00 | 87 | 1019.7 |
| 20260510144227 | 66 | 238 | 3.0 | 8.0 | 0.00 | 0.00 | 0.00 | 86 | 1019.7 |
| 20260510144007 | 66 | 297 | 3.0 | 8.0 | 0.00 | 0.00 | 0.00 | 87 | 1019.7 |
| 20260510143907 | 66 | 265 | 3.0 | 9.0 | 0.00 | 0.00 | 0.00 | 87 | 1019.8 |
| 20260510143806 | 66 | 247 | 3.0 | 9.0 | 0.00 | 0.00 | 0.00 | 87 | 1019.7 |
| 20260510143706 | 66 | 263 | 3.0 | 9.0 | 0.00 | 0.00 | 0.00 | 87 | 1019.7 |
| 20260510143607 | 66 | 250 | 3.0 | 9.0 | 0.00 | 0.00 | 0.00 | 87 | 1019.7 |
| 20260510143506 | 66 | 269 | 3.0 | 9.0 | 0.00 | 0.00 | 0.00 | 86 | 1019.7 |
| 20260510143406 | 66 | 228 | 3.0 | 9.0 | 0.00 | 0.00 | 0.00 | 87 | 1019.7 |
| 20260510143307 | 66 | 314 | 3.0 | 9.0 | 0.00 | 0.00 | 0.00 | 86 | 1019.7 |
| 20260510143206 | 66 | 205 | 3.0 | 9.0 | 0.00 | 0.00 | 0.00 | 86 | 1019.7 |
| 20260510143107 | 66 | 236 | 3.0 | 9.0 | 0.00 | 0.00 | 0.00 | 87 | 1019.6 |
| 20260510143007 | 66 | 236 | 3.0 | 9.0 | 0.00 | 0.00 | 0.00 | 86 | 1019.7 |
| 20260510142907 | 66 | 213 | 3.0 | 8.0 | 0.00 | 0.00 | 0.00 | 87 | 1019.6 |
| 20260510142806 | 65 | 292 | 3.0 | 8.0 | 0.00 | 0.00 | 0.00 | 88 | 1019.6 |
| 20260510142606 | 65 | 177 | 3.0 | 8.0 | 0.00 | 0.00 | 0.00 | 89 | 1019.7 |
| 20260510142507 | 65 | 290 | 3.0 | 7.0 | 0.00 | 0.00 | 0.00 | 88 | 1019.6 |
| 20260510142407 | 65 | 232 | 3.0 | 7.0 | 0.00 | 0.00 | 0.00 | 87 | 1019.6 |
| 20260510142306 | 65 | 314 | 3.0 | 7.0 | 0.00 | 0.00 | 0.00 | 87 | 1019.5 |
| 20260510142206 | 65 | 259 | 3.0 | 9.0 | 0.00 | 0.00 | 0.00 | 87 | 1019.5 |
| 20260510142105 | 65 | 245 | 3.0 | 9.0 | 0.00 | 0.00 | 0.00 | 88 | 1019.5 |
| 20260510142005 | 65 | 265 | 3.0 | 9.0 | 0.00 | 0.00 | 0.00 | 88 | 1019.5 |
| 20260510141957 | 65 | 250 | 3.0 | 9.0 | 0.00 | 0.00 | 0.00 | 89 | 1019.4 |
| 20260510141952 | 65 | 207 | 3.0 | 9.0 | 0.00 | 0.00 | 0.00 | 88 | 1019.5 |
| 20260510141935 | 65 | 221 | 3.0 | 9.0 | 0.00 | 0.00 | 0.00 | 89 | 1019.5 |
| 20260510141805 | 65 | 248 | 3.0 | 9.0 | 0.00 | 0.00 | 0.00 | 88 | 1019.4 |
| 20260510141743 | 65 | 242 | 3.0 | 9.0 | 0.00 | 0.00 | 0.00 | 89 | 1019.5 |
| 20260510141358 | 65 | 213 | 3.0 | 9.0 | 0.00 | 0.00 | 0.00 | 89 | 1019.4 |
| 20260510141301 | 65 | 229 | 3.0 | 9.0 | 0.00 | 0.00 | 0.00 | 89 | 1019.4 |
| 20260510141158 | 65 | 243 | 3.0 | 8.0 | 0.00 | 0.00 | 0.00 | 88 | 1019.4 |
| 20260510141059 | 65 | 259 | 3.0 | 8.0 | 0.00 | 0.00 | 0.00 | 89 | 1019.4 |
| 20260510140953 | 64 | 230 | 4.0 | 8.0 | 0.00 | 0.00 | 0.00 | 89 | 1019.5 |
| 20260510140853 | 64 | 277 | 4.0 | 10.0 | 0.00 | 0.00 | 0.00 | 90 | 1019.5 |
| 20260510140753 | 64 | 250 | 4.0 | 10.0 | 0.00 | 0.00 | 0.00 | 90 | 1019.4 |
| 20260510140652 | 64 | 250 | 4.0 | 10.0 | 0.00 | 0.00 | 0.00 | 89 | 1019.4 |
| 20260510140552 | 64 | 221 | 4.0 | 10.0 | 0.00 | 0.00 | 0.00 | 89 | 1019.4 |
| 20260510140450 | 64 | 213 | 4.0 | 12.0 | 0.00 | 0.00 | 0.00 | 89 | 1019.4 |
| 20260510140418 | 64 | 232 | 4.0 | 12.0 | 0.00 | 0.00 | 0.00 | 90 | 1019.4 |
| 20260510140407 | 64 | 250 | 4.0 | 12.0 | 0.00 | 0.00 | 0.00 | 90 | 1019.4 |
| 20260510140147 | 64 | 281 | 4.0 | 12.0 | 0.00 | 0.00 | 0.00 | 89 | 1019.4 |
| 20260510140046 | 63 | 209 | 4.0 | 12.0 | 0.00 | 0.00 | 0.00 | 90 | 1019.4 |
| 20260510135936 | 63 | 221 | 4.0 | 12.0 | 0.00 | 0.00 | 0.00 | 91 | 1019.5 |
| 20260510135836 | 63 | 236 | 4.0 | 12.0 | 0.00 | 0.00 | 0.00 | 91 | 1019.5 |
| 20260510135738 | 63 | 229 | 4.0 | 12.0 | 0.00 | 0.00 | 0.00 | 92 | 1019.5 |
| 20260510135711 | 63 | 266 | 4.0 | 9.0 | 0.00 | 0.00 | 0.00 | 92 | 1019.4 |
| 20260510135659 | 63 | 238 | 4.0 | 12.0 | 0.00 | 0.00 | 0.00 | 92 | 1019.5 |
| 20260510135433 | 63 | 258 | 4.0 | 9.0 | 0.00 | 0.00 | 0.00 | 92 | 1019.4 |
| 20260510135329 | 63 | 296 | 4.0 | 9.0 | 0.00 | 0.00 | 0.00 | 92 | 1019.4 |
| 20260510135231 | 63 | 260 | 4.0 | 9.0 | 0.00 | 0.00 | 0.00 | 92 | 1019.4 |
| 20260510135127 | 63 | 220 | 4.0 | 9.0 | 0.00 | 0.00 | 0.00 | 93 | 1019.4 |
| 20260510135027 | 63 | 259 | 4.0 | 9.0 | 0.00 | 0.00 | 0.00 | 93 | 1019.3 |
| 20260510134953 | 62 | 188 | 4.0 | 9.0 | 0.00 | 0.00 | 0.00 | 93 | 1019.3 |
| 20260510134943 | 63 | 247 | 4.0 | 9.0 | 0.00 | 0.00 | 0.00 | 93 | 1019.3 |
| 20260510134755 | 62 | 299 | 3.0 | 9.0 | 0.00 | 0.00 | 0.00 | 93 | 1019.3 |
| 20260510134745 | 62 | 187 | 4.0 | 9.0 | 0.00 | 0.00 | 0.00 | 93 | 1019.3 |
| 20260510134520 | 62 | 242 | 3.0 | 8.0 | 0.00 | 0.00 | 0.00 | 93 | 1019.3 |
| 20260510134410 | 62 | 226 | 4.0 | 10.0 | 0.00 | 0.00 | 0.00 | 94 | 1019.2 |
| 20260510134309 | 62 | 250 | 4.0 | 10.0 | 0.00 | 0.00 | 0.00 | 94 | 1019.3 |
| 20260510134211 | 62 | 221 | 4.0 | 10.0 | 0.00 | 0.00 | 0.00 | 94 | 1019.3 |
| 20260510134109 | 62 | 217 | 4.0 | 10.0 | 0.00 | 0.00 | 0.00 | 94 | 1019.3 |
| 20260510134011 | 62 | 217 | 4.0 | 10.0 | 0.00 | 0.00 | 0.00 | 94 | 1019.3 |
| 20260510133936 | 62 | 224 | 4.0 | 14.0 | 0.00 | 0.00 | 0.00 | 94 | 1019.3 |
| 20260510133925 | 62 | 229 | 4.0 | 14.0 | 0.00 | 0.00 | 0.00 | 94 | 1019.3 |
| 20260510133705 | 62 | 231 | 4.0 | 14.0 | 0.00 | 0.00 | 0.00 | 94 | 1019.2 |
| 20260510133606 | 62 | 215 | 4.0 | 14.0 | 0.00 | 0.00 | 0.00 | 94 | 1019.3 |
| 20260510133504 | 62 | 284 | 4.0 | 14.0 | 0.00 | 0.00 | 0.00 | 94 | 1019.3 |
| 20260510133427 | 62 | 185 | 4.0 | 14.0 | 0.00 | 0.00 | 0.00 | 94 | 1019.2 |
| 20260510133417 | 62 | 221 | 4.0 | 14.0 | 0.00 | 0.00 | 0.00 | 94 | 1019.2 |
| 20260510133158 | 62 | 248 | 4.0 | 14.0 | 0.00 | 0.00 | 0.00 | 94 | 1019.3 |
| 20260510133100 | 62 | 209 | 4.0 | 14.0 | 0.00 | 0.00 | 0.00 | 94 | 1019.3 |
| 20260510132959 | 62 | 244 | 4.0 | 8.0 | 0.00 | 0.00 | 0.00 | 94 | 1019.2 |
| 20260510132844 | 62 | 235 | 4.0 | 8.0 | 0.00 | 0.00 | 0.00 | 94 | 1019.3 |
| 20260510132747 | 62 | 239 | 3.0 | 8.0 | 0.00 | 0.00 | 0.00 | 94 | 1019.3 |
| 20260510132741 | 62 | 223 | 3.0 | 8.0 | 0.00 | 0.00 | 0.00 | 95 | 1019.2 |
| 20260510132721 | 62 | 225 | 3.0 | 8.0 | 0.00 | 0.00 | 0.00 | 95 | 1019.2 |
| 20260510132710 | 62 | 223 | 3.0 | 8.0 | 0.00 | 0.00 | 0.00 | 95 | 1019.2 |
| 20260510132446 | 62 | 205 | 3.0 | 8.0 | 0.00 | 0.00 | 0.00 | 95 | 1019.2 |
| 20260510132341 | 62 | 221 | 3.0 | 8.0 | 0.00 | 0.00 | 0.00 | 95 | 1019.2 |
| 20260510132237 | 62 | 306 | 3.0 | 7.0 | 0.00 | 0.00 | 0.00 | 95 | 1019.2 |
| 20260510132139 | 62 | 205 | 3.0 | 7.0 | 0.00 | 0.00 | 0.00 | 95 | 1019.2 |
| 20260510132038 | 62 | 218 | 3.0 | 7.0 | 0.00 | 0.00 | 0.00 | 95 | 1019.2 |
| 20260510131938 | 62 | 233 | 3.0 | 6.0 | 0.00 | 0.00 | 0.00 | 95 | 1019.2 |
| 20260510131834 | 61 | 222 | 3.0 | 6.0 | 0.00 | 0.00 | 0.00 | 95 | 1019.2 |
| 20260510131733 | 61 | 355 | 3.0 | 6.0 | 0.00 | 0.00 | 0.00 | 95 | 1019.1 |
| 20260510131634 | 61 | 285 | 3.0 | 6.0 | 0.00 | 0.00 | 0.00 | 95 | 1019.2 |
| 20260510131533 | 61 | 213 | 3.0 | 8.0 | 0.00 | 0.00 | 0.00 | 95 | 1019.2 |
| 20260510131433 | 61 | 260 | 3.0 | 8.0 | 0.00 | 0.00 | 0.00 | 95 | 1019.2 |
| 20260510131322 | 61 | 219 | 3.0 | 8.0 | 0.00 | 0.00 | 0.00 | 95 | 1019.2 |
| 20260510131222 | 61 | 244 | 3.0 | 8.0 | 0.00 | 0.00 | 0.00 | 95 | 1019.2 |
| 20260510131152 | 61 | 277 | 3.0 | 8.0 | 0.00 | 0.00 | 0.00 | 95 | 1019.1 |
| 20260510131142 | 61 | 258 | 3.0 | 8.0 | 0.00 | 0.00 | 0.00 | 95 | 1019.1 |
| 20260510130922 | 61 | 216 | 4.0 | 9.0 | 0.00 | 0.00 | 0.00 | 95 | 1019.1 |
| 20260510130848 | 61 | 224 | 4.0 | 9.0 | 0.00 | 0.00 | 0.00 | 95 | 1019.2 |
| 20260510130837 | 61 | 279 | 4.0 | 9.0 | 0.00 | 0.00 | 0.00 | 95 | 1019.2 |
| 20260510130618 | 61 | 317 | 4.0 | 9.0 | 0.00 | 0.00 | 0.00 | 95 | 1019.1 |
| 20260510130557 | 61 | 210 | 4.0 | 9.0 | 0.00 | 0.00 | 0.00 | 95 | 1019.1 |
| 20260510130543 | 61 | 205 | 4.0 | 9.0 | 0.00 | 0.00 | 0.00 | 95 | 1019.2 |
| 20260510130310 | 61 | 219 | 4.0 | 9.0 | 0.00 | 0.00 | 0.00 | 95 | 1019.2 |
| 20260510130212 | 61 | 234 | 3.0 | 9.0 | 0.00 | 0.00 | 0.00 | 95 | 1019.1 |
| 20260510130112 | 61 | 230 | 4.0 | 9.0 | 0.00 | 0.00 | 0.00 | 95 | 1019.2 |
| 20260510130009 | 61 | 219 | 3.0 | 9.0 | 0.00 | 0.00 | 0.00 | 95 | 1019.1 |
| 20260510125909 | 61 | 208 | 3.0 | 9.0 | 0.00 | 0.00 | 0.00 | 95 | 1019.1 |
| 20260510125754 | 61 | 204 | 3.0 | 9.0 | 0.00 | 0.00 | 0.00 | 95 | 1019.1 |
| 20260510125654 | 61 | 263 | 3.0 | 9.0 | 0.00 | 0.00 | 0.00 | 95 | 1019.2 |
| 20260510125554 | 61 | 204 | 3.0 | 9.0 | 0.00 | 0.00 | 0.00 | 95 | 1019.1 |
| 20260510125453 | 61 | 247 | 3.0 | 9.0 | 0.00 | 0.00 | 0.00 | 95 | 1019.0 |
| 20260510125356 | 61 | 240 | 3.0 | 8.0 | 0.00 | 0.00 | 0.00 | 95 | 1019.1 |
| 20260510125250 | 61 | 250 | 3.0 | 8.0 | 0.00 | 0.00 | 0.00 | 95 | 1019.1 |
| 20260510125150 | 61 | 233 | 3.0 | 8.0 | 0.00 | 0.00 | 0.00 | 94 | 1019.1 |
| 20260510125049 | 61 | 228 | 3.0 | 8.0 | 0.00 | 0.00 | 0.00 | 94 | 1019.1 |
| 20260510124948 | 61 | 207 | 3.0 | 8.0 | 0.00 | 0.00 | 0.00 | 94 | 1019.0 |
| 20260510124849 | 61 | 253 | 3.0 | 8.0 | 0.00 | 0.00 | 0.00 | 94 | 1019.0 |
| 20260510124749 | 61 | 264 | 3.0 | 8.0 | 0.00 | 0.00 | 0.00 | 94 | 1019.0 |
| 20260510124659 | 60 | 213 | 3.0 | 9.0 | 0.00 | 0.00 | 0.00 | 94 | 1018.9 |
| 20260510124649 | 61 | 234 | 3.0 | 8.0 | 0.00 | 0.00 | 0.00 | 94 | 1019.1 |
| 20260510124641 | 60 | 292 | 3.0 | 9.0 | 0.00 | 0.00 | 0.00 | 94 | 1018.9 |
| 20260510124623 | 60 | 281 | 3.0 | 8.0 | 0.00 | 0.00 | 0.00 | 94 | 1019.0 |
| 20260510124251 | 60 | 274 | 3.0 | 9.0 | 0.00 | 0.00 | 0.00 | 94 | 1018.9 |
| 20260510124238 | 60 | 244 | 3.0 | 9.0 | 0.00 | 0.00 | 0.00 | 94 | 1018.9 |
| 20260510124035 | 60 | 229 | 4.0 | 9.0 | 0.00 | 0.00 | 0.00 | 94 | 1018.9 |
| 20260510123933 | 60 | 258 | 4.0 | 9.0 | 0.00 | 0.00 | 0.00 | 94 | 1018.9 |
| 20260510123835 | 60 | 227 | 4.0 | 9.0 | 0.00 | 0.00 | 0.00 | 94 | 1018.9 |
| 20260510123730 | 60 | 244 | 4.0 | 9.0 | 0.00 | 0.00 | 0.00 | 94 | 1018.8 |
| 20260510123630 | 60 | 240 | 4.0 | 9.0 | 0.00 | 0.00 | 0.00 | 94 | 1018.9 |
| 20260510123530 | 60 | 255 | 4.0 | 9.0 | 0.00 | 0.00 | 0.00 | 94 | 1018.9 |
| 20260510123433 | 60 | 268 | 4.0 | 9.0 | 0.00 | 0.00 | 0.00 | 94 | 1018.8 |
| 20260510123328 | 60 | 220 | 4.0 | 9.0 | 0.00 | 0.00 | 0.00 | 94 | 1018.9 |
| 20260510123227 | 60 | 289 | 4.0 | 9.0 | 0.00 | 0.00 | 0.00 | 94 | 1018.9 |
| 20260510123128 | 60 | 205 | 4.0 | 10.0 | 0.00 | 0.00 | 0.00 | 94 | 1018.9 |
| 20260510123028 | 60 | 323 | 4.0 | 10.0 | 0.00 | 0.00 | 0.00 | 94 | 1018.9 |
| 20260510122943 | 60 | 238 | 4.0 | 10.0 | 0.00 | 0.00 | 0.00 | 94 | 1018.9 |
| 20260510122931 | 60 | 196 | 4.0 | 10.0 | 0.00 | 0.00 | 0.00 | 94 | 1018.9 |
| 20260510122909 | 60 | 298 | 4.0 | 10.0 | 0.00 | 0.00 | 0.00 | 94 | 1018.8 |
| 20260510122749 | 60 | 204 | 4.0 | 10.0 | 0.00 | 0.00 | 0.00 | 94 | 1018.8 |
| 20260510122555 | 60 | 242 | 4.0 | 10.0 | 0.00 | 0.00 | 0.00 | 94 | 1018.7 |
| 20260510122545 | 60 | 217 | 4.0 | 10.0 | 0.00 | 0.00 | 0.00 | 94 | 1018.9 |
| 20260510122358 | 60 | 190 | 4.0 | 14.0 | 0.00 | 0.00 | 0.00 | 94 | 1018.8 |
| 20260510122345 | 60 | 200 | 4.0 | 14.0 | 0.00 | 0.00 | 0.00 | 94 | 1018.7 |
| 20260510122123 | 60 | 247 | 4.0 | 14.0 | 0.00 | 0.00 | 0.00 | 94 | 1018.7 |
| 20260510122017 | 60 | 306 | 4.0 | 14.0 | 0.00 | 0.00 | 0.00 | 94 | 1018.7 |
| 20260510121920 | 60 | 296 | 4.0 | 14.0 | 0.00 | 0.00 | 0.00 | 94 | 1018.7 |
| 20260510121817 | 60 | 184 | 4.0 | 14.0 | 0.00 | 0.00 | 0.00 | 94 | 1018.8 |
| 20260510121718 | 60 | 207 | 4.0 | 14.0 | 0.00 | 0.00 | 0.00 | 94 | 1018.7 |
| 20260510121617 | 60 | 250 | 4.0 | 14.0 | 0.00 | 0.00 | 0.00 | 94 | 1018.7 |
| 20260510121519 | 60 | 231 | 4.0 | 14.0 | 0.00 | 0.00 | 0.00 | 94 | 1018.7 |
| 20260510121419 | 60 | 205 | 4.0 | 14.0 | 0.00 | 0.00 | 0.00 | 94 | 1018.6 |
| 20260510121317 | 60 | 222 | 4.0 | 9.0 | 0.00 | 0.00 | 0.00 | 94 | 1018.7 |
| 20260510121219 | 60 | 235 | 4.0 | 9.0 | 0.00 | 0.00 | 0.00 | 94 | 1018.7 |
| 20260510121117 | 60 | 236 | 4.0 | 9.0 | 0.00 | 0.00 | 0.00 | 94 | 1018.7 |
| 20260510121018 | 60 | 239 | 4.0 | 9.0 | 0.00 | 0.00 | 0.00 | 94 | 1018.7 |
| 20260510120923 | 60 | 235 | 4.0 | 9.0 | 0.00 | 0.00 | 0.00 | 94 | 1018.6 |
| 20260510120817 | 60 | 202 | 4.0 | 9.0 | 0.00 | 0.00 | 0.00 | 94 | 1018.7 |
| 20260510120715 | 60 | 227 | 4.0 | 9.0 | 0.00 | 0.00 | 0.00 | 94 | 1018.7 |
| 20260510120646 | 60 | 287 | 4.0 | 10.0 | 0.00 | 0.00 | 0.00 | 94 | 1018.6 |
| 20260510120637 | 60 | 267 | 4.0 | 10.0 | 0.00 | 0.00 | 0.00 | 94 | 1018.6 |
| 20260510120455 | 60 | 227 | 4.0 | 10.0 | 0.00 | 0.00 | 0.00 | 94 | 1018.6 |
| 20260510120439 | 60 | 209 | 4.0 | 10.0 | 0.00 | 0.00 | 0.00 | 94 | 1018.5 |
| 20260510120241 | 59 | 315 | 4.0 | 8.0 | 0.00 | 0.00 | 0.00 | 94 | 1018.4 |
| 20260510120235 | 60 | 208 | 4.0 | 10.0 | 0.00 | 0.00 | 0.00 | 94 | 1018.5 |
| 20260510120222 | 60 | 237 | 4.0 | 10.0 | 0.00 | 0.00 | 0.00 | 94 | 1018.5 |
| 20260510120159 | 60 | 254 | 4.0 | 10.0 | 0.00 | 0.00 | 0.00 | 94 | 1018.6 |
| 20260510120007 | 60 | 243 | 4.0 | 10.0 | 0.00 | 0.00 | 0.00 | 94 | 1018.4 |
| 20260510115834 | 59 | 194 | 4.0 | 10.0 | 0.00 | 0.00 | 0.00 | 94 | 1018.4 |
| 20260510115807 | 59 | 229 | 4.0 | 10.0 | 0.00 | 0.00 | 0.00 | 94 | 1018.5 |
| 20260510115641 | 59 | 281 | 4.0 | 8.0 | 0.00 | 0.00 | 0.00 | 94 | 1018.4 |
| 20260510115413 | 59 | 207 | 4.0 | 9.0 | 0.00 | 0.00 | 0.00 | 94 | 1018.4 |
| 20260510115311 | 59 | 227 | 4.0 | 11.0 | 0.00 | 0.00 | 0.00 | 94 | 1018.2 |
| 20260510115211 | 59 | 234 | 4.0 | 11.0 | 0.00 | 0.00 | 0.00 | 94 | 1018.4 |
| 20260510115112 | 59 | 191 | 4.0 | 11.0 | 0.00 | 0.00 | 0.00 | 94 | 1018.4 |
| 20260510115011 | 59 | 221 | 4.0 | 11.0 | 0.00 | 0.00 | 0.00 | 94 | 1018.2 |
| 20260510114945 | 59 | 209 | 4.0 | 11.0 | 0.00 | 0.00 | 0.00 | 94 | 1018.4 |
| 20260510114934 | 59 | 331 | 4.0 | 11.0 | 0.00 | 0.00 | 0.00 | 94 | 1018.4 |
| 20260510114713 | 59 | 204 | 4.0 | 11.0 | 0.00 | 0.00 | 0.00 | 94 | 1018.2 |
| 20260510114632 | 59 | 240 | 4.0 | 11.0 | 0.00 | 0.00 | 0.00 | 94 | 1018.2 |
| 20260510114613 | 59 | 288 | 4.0 | 11.0 | 0.00 | 0.00 | 0.00 | 94 | 1018.4 |
| 20260510114417 | 59 | 237 | 4.0 | 11.0 | 0.00 | 0.00 | 0.00 | 94 | 1018.4 |
| 20260510114311 | 59 | 254 | 4.0 | 10.0 | 0.00 | 0.00 | 0.00 | 94 | 1018.4 |
| 20260510114212 | 59 | 186 | 3.0 | 9.0 | 0.00 | 0.00 | 0.00 | 94 | 1018.2 |
| 20260510114112 | 59 | 217 | 3.0 | 8.0 | 0.00 | 0.00 | 0.00 | 94 | 1018.2 |
| 20260510114012 | 59 | 205 | 3.0 | 7.0 | 0.00 | 0.00 | 0.00 | 94 | 1018.2 |
| 20260510113913 | 59 | 237 | 3.0 | 8.0 | 0.00 | 0.00 | 0.00 | 94 | 1018.2 |
| 20260510113811 | 59 | 241 | 4.0 | 8.0 | 0.00 | 0.00 | 0.00 | 94 | 1018.2 |
| 20260510113711 | 59 | 242 | 3.0 | 8.0 | 0.00 | 0.00 | 0.00 | 94 | 1018.2 |
| 20260510113612 | 59 | 218 | 3.0 | 8.0 | 0.00 | 0.00 | 0.00 | 94 | 1018.2 |
| 20260510113549 | 59 | 263 | 3.0 | 8.0 | 0.00 | 0.00 | 0.00 | 94 | 1018.1 |
| 20260510113535 | 59 | 227 | 3.0 | 8.0 | 0.00 | 0.00 | 0.00 | 94 | 1018.2 |
| 20260510113313 | 59 | 210 | 3.0 | 8.0 | 0.00 | 0.00 | 0.00 | 94 | 1018.0 |
| 20260510113213 | 59 | 223 | 3.0 | 8.0 | 0.00 | 0.00 | 0.00 | 94 | 1018.1 |
| 20260510113113 | 59 | 238 | 3.0 | 8.0 | 0.00 | 0.00 | 0.00 | 94 | 1018.0 |
| 20260510113011 | 59 | 279 | 3.0 | 8.0 | 0.00 | 0.00 | 0.00 | 94 | 1018.1 |
| 20260510112913 | 59 | 216 | 3.0 | 7.0 | 0.00 | 0.00 | 0.00 | 94 | 1018.1 |
| 20260510112812 | 59 | 246 | 3.0 | 7.0 | 0.00 | 0.00 | 0.00 | 94 | 1018.1 |
| 20260510112713 | 59 | 221 | 3.0 | 7.0 | 0.00 | 0.00 | 0.00 | 94 | 1018.1 |
| 20260510112612 | 59 | 217 | 3.0 | 7.0 | 0.00 | 0.00 | 0.00 | 94 | 1018.0 |
| 20260510112511 | 59 | 223 | 4.0 | 10.0 | 0.00 | 0.00 | 0.00 | 94 | 1018.1 |
| 20260510112411 | 59 | 259 | 4.0 | 10.0 | 0.00 | 0.00 | 0.00 | 94 | 1018.0 |
| 20260510112311 | 59 | 249 | 4.0 | 10.0 | 0.00 | 0.00 | 0.00 | 94 | 1018.0 |
| 20260510112212 | 59 | 234 | 4.0 | 10.0 | 0.00 | 0.00 | 0.00 | 94 | 1018.0 |
| 20260510112108 | 59 | 233 | 4.0 | 10.0 | 0.00 | 0.00 | 0.00 | 94 | 1018.0 |
| 20260510112007 | 59 | 234 | 4.0 | 10.0 | 0.00 | 0.00 | 0.00 | 94 | 1017.9 |
| 20260510111949 | 59 | 223 | 4.0 | 10.0 | 0.00 | 0.00 | 0.00 | 94 | 1017.9 |
| 20260510111945 | 59 | 236 | 4.0 | 10.0 | 0.00 | 0.00 | 0.00 | 94 | 1017.8 |
| 20260510111939 | 59 | 216 | 4.0 | 9.0 | 0.00 | 0.00 | 0.00 | 94 | 1017.7 |
| 20260510111929 | 59 | 227 | 4.0 | 10.0 | 0.00 | 0.00 | 0.00 | 94 | 1017.8 |
| 20260510111748 | 59 | 228 | 4.0 | 10.0 | 0.00 | 0.00 | 0.00 | 94 | 1017.8 |
| 20260510111418 | 59 | 207 | 4.0 | 8.0 | 0.00 | 0.00 | 0.00 | 94 | 1017.9 |
| 20260510111308 | 59 | 232 | 3.0 | 8.0 | 0.00 | 0.00 | 0.00 | 94 | 1017.8 |
| 20260510111211 | 59 | 223 | 4.0 | 8.0 | 0.00 | 0.00 | 0.00 | 94 | 1017.8 |
| 20260510111108 | 59 | 222 | 3.0 | 8.0 | 0.00 | 0.00 | 0.00 | 94 | 1017.9 |
| 20260510111008 | 59 | 219 | 3.0 | 8.0 | 0.00 | 0.00 | 0.00 | 94 | 1017.8 |
| 20260510110907 | 59 | 227 | 3.0 | 8.0 | 0.00 | 0.00 | 0.00 | 94 | 1017.8 |
| 20260510110807 | 59 | 205 | 3.0 | 8.0 | 0.00 | 0.00 | 0.00 | 94 | 1017.7 |
| 20260510110708 | 59 | 215 | 3.0 | 8.0 | 0.00 | 0.00 | 0.00 | 94 | 1017.7 |
| 20260510110607 | 59 | 230 | 3.0 | 8.0 | 0.00 | 0.00 | 0.00 | 94 | 1017.7 |
| 20260510110507 | 59 | 212 | 3.0 | 8.0 | 0.00 | 0.00 | 0.00 | 94 | 1017.8 |
| 20260510110408 | 59 | 218 | 3.0 | 8.0 | 0.00 | 0.00 | 0.00 | 94 | 1017.8 |
| 20260510110310 | 59 | 250 | 3.0 | 8.0 | 0.00 | 0.00 | 0.00 | 94 | 1017.7 |
| 20260510110230 | 59 | 220 | 3.0 | 6.0 | 0.00 | 0.00 | 0.00 | 94 | 1017.7 |
| 20260510110216 | 59 | 227 | 3.0 | 6.0 | 0.00 | 0.00 | 0.00 | 94 | 1017.7 |
| 20260510110147 | 59 | 227 | 3.0 | 6.0 | 0.00 | 0.00 | 0.00 | 94 | 1017.7 |
| 20260510110024 | 59 | 229 | 3.0 | 6.0 | 0.00 | 0.00 | 0.00 | 94 | 1017.6 |
| 20260510105804 | 59 | 212 | 4.0 | 6.0 | 0.00 | 0.00 | 0.00 | 94 | 1017.8 |
| 20260510105709 | 59 | 223 | 4.0 | 7.0 | 0.00 | 0.00 | 0.00 | 94 | 1017.8 |
| 20260510105634 | 59 | 220 | 4.0 | 7.0 | 0.00 | 0.00 | 0.00 | 94 | 1017.7 |
| 20260510105623 | 59 | 207 | 4.0 | 7.0 | 0.00 | 0.00 | 0.00 | 94 | 1017.8 |
| 20260510105436 | 59 | 213 | 4.0 | 7.0 | 0.00 | 0.00 | 0.00 | 94 | 1017.8 |
| 20260510105425 | 59 | 205 | 4.0 | 7.0 | 0.00 | 0.00 | 0.00 | 94 | 1017.7 |
| 20260510105159 | 59 | 232 | 4.0 | 7.0 | 0.00 | 0.00 | 0.00 | 94 | 1017.7 |
| 20260510105100 | 59 | 215 | 4.0 | 7.0 | 0.00 | 0.00 | 0.00 | 94 | 1017.7 |
| 20260510104959 | 59 | 207 | 4.0 | 7.0 | 0.00 | 0.00 | 0.00 | 94 | 1017.7 |
| 20260510104901 | 59 | 221 | 4.0 | 7.0 | 0.00 | 0.00 | 0.00 | 94 | 1017.7 |
| 20260510104759 | 59 | 236 | 3.0 | 7.0 | 0.00 | 0.00 | 0.00 | 94 | 1017.7 |
| 20260510104659 | 59 | 227 | 3.0 | 7.0 | 0.00 | 0.00 | 0.00 | 94 | 1017.6 |
| 20260510104555 | 59 | 238 | 3.0 | 7.0 | 0.00 | 0.00 | 0.00 | 94 | 1017.7 |
| 20260510104509 | 59 | 215 | 3.0 | 7.0 | 0.00 | 0.00 | 0.00 | 94 | 1017.6 |
| 20260510104357 | 59 | 202 | 3.0 | 8.0 | 0.00 | 0.00 | 0.00 | 94 | 1017.6 |
| 20260510104255 | 59 | 225 | 3.0 | 8.0 | 0.00 | 0.00 | 0.00 | 94 | 1017.6 |
| 20260510104225 | 59 | 225 | 3.0 | 8.0 | 0.00 | 0.00 | 0.00 | 94 | 1017.6 |
| 20260510104217 | 59 | 223 | 3.0 | 8.0 | 0.00 | 0.00 | 0.00 | 94 | 1017.6 |
| 20260510103957 | 59 | 221 | 3.0 | 8.0 | 0.00 | 0.00 | 0.00 | 94 | 1017.6 |
| 20260510103855 | 59 | 225 | 3.0 | 8.0 | 0.00 | 0.00 | 0.00 | 94 | 1017.5 |
| 20260510103749 | 59 | 226 | 3.0 | 8.0 | 0.00 | 0.00 | 0.00 | 94 | 1017.5 |
| 20260510103650 | 59 | 207 | 3.0 | 8.0 | 0.00 | 0.00 | 0.00 | 94 | 1017.5 |
| 20260510103550 | 59 | 205 | 3.0 | 8.0 | 0.00 | 0.00 | 0.00 | 94 | 1017.4 |
| 20260510103450 | 59 | 223 | 3.0 | 7.0 | 0.00 | 0.00 | 0.00 | 94 | 1017.5 |
| 20260510103349 | 59 | 244 | 3.0 | 7.0 | 0.00 | 0.00 | 0.00 | 94 | 1017.5 |
| 20260510103245 | 59 | 252 | 3.0 | 7.0 | 0.00 | 0.00 | 0.00 | 94 | 1017.4 |
| 20260510103145 | 59 | 209 | 3.0 | 9.0 | 0.00 | 0.00 | 0.00 | 94 | 1017.4 |
| 20260510103046 | 59 | 243 | 3.0 | 9.0 | 0.00 | 0.00 | 0.00 | 94 | 1017.4 |
| 20260510102948 | 59 | 211 | 3.0 | 9.0 | 0.00 | 0.00 | 0.00 | 94 | 1017.4 |
| 20260510102843 | 59 | 258 | 3.0 | 9.0 | 0.00 | 0.00 | 0.00 | 94 | 1017.5 |
| 20260510102753 | 59 | 194 | 3.0 | 9.0 | 0.00 | 0.00 | 0.00 | 94 | 1017.3 |
| 20260510102743 | 59 | 216 | 3.0 | 9.0 | 0.00 | 0.00 | 0.00 | 94 | 1017.4 |
| 20260510102722 | 59 | 218 | 4.0 | 9.0 | 0.00 | 0.00 | 0.00 | 94 | 1017.4 |
| 20260510102558 | 59 | 221 | 4.0 | 9.0 | 0.00 | 0.00 | 0.00 | 94 | 1017.4 |
| 20260510102337 | 59 | 224 | 3.0 | 9.0 | 0.00 | 0.00 | 0.00 | 94 | 1017.4 |
| 20260510102237 | 59 | 241 | 3.0 | 9.0 | 0.00 | 0.00 | 0.00 | 94 | 1017.4 |
| 20260510102137 | 59 | 223 | 3.0 | 7.0 | 0.00 | 0.00 | 0.00 | 94 | 1017.4 |
| 20260510102038 | 59 | 222 | 3.0 | 7.0 | 0.00 | 0.00 | 0.00 | 94 | 1017.4 |
| 20260510101937 | 59 | 227 | 3.0 | 7.0 | 0.00 | 0.00 | 0.00 | 94 | 1017.4 |
| 20260510101838 | 59 | 211 | 3.0 | 7.0 | 0.00 | 0.00 | 0.00 | 94 | 1017.4 |
| 20260510101736 | 59 | 219 | 3.0 | 7.0 | 0.00 | 0.00 | 0.00 | 94 | 1017.4 |
| 20260510101710 | 59 | 215 | 3.0 | 7.0 | 0.00 | 0.00 | 0.00 | 94 | 1017.3 |
| 20260510101700 | 59 | 223 | 3.0 | 7.0 | 0.00 | 0.00 | 0.00 | 94 | 1017.4 |
| 20260510101432 | 59 | 223 | 3.0 | 7.0 | 0.00 | 0.00 | 0.00 | 94 | 1017.3 |
| 20260510101338 | 59 | 211 | 3.0 | 7.0 | 0.00 | 0.00 | 0.00 | 94 | 1017.3 |
| 20260510101231 | 59 | 211 | 3.0 | 6.0 | 0.00 | 0.00 | 0.00 | 94 | 1017.2 |
| 20260510101206 | 59 | 213 | 4.0 | 9.0 | 0.00 | 0.00 | 0.00 | 94 | 1017.2 |
| 20260510101200 | 59 | 217 | 4.0 | 9.0 | 0.00 | 0.00 | 0.00 | 94 | 1017.2 |
| 20260510101156 | 59 | 208 | 4.0 | 9.0 | 0.00 | 0.00 | 0.00 | 94 | 1017.2 |
| 20260510101142 | 59 | 202 | 3.0 | 6.0 | 0.00 | 0.00 | 0.00 | 94 | 1017.2 |
| 20260510100837 | 59 | 221 | 4.0 | 9.0 | 0.00 | 0.00 | 0.00 | 94 | 1017.2 |
| 20260510100809 | 59 | 221 | 4.0 | 9.0 | 0.00 | 0.00 | 0.00 | 94 | 1017.2 |
| 20260510100640 | 59 | 217 | 4.0 | 9.0 | 0.00 | 0.00 | 0.00 | 94 | 1017.2 |
| 20260510100628 | 59 | 219 | 4.0 | 9.0 | 0.00 | 0.00 | 0.00 | 94 | 1017.2 |
| 20260510100602 | 59 | 203 | 4.0 | 9.0 | 0.00 | 0.00 | 0.00 | 94 | 1017.2 |
| 20260510100218 | 59 | 227 | 4.0 | 9.0 | 0.00 | 0.00 | 0.00 | 94 | 1017.2 |
| 20260510100119 | 59 | 270 | 4.0 | 9.0 | 0.00 | 0.00 | 0.00 | 94 | 1017.2 |
| 20260510100016 | 59 | 234 | 4.0 | 7.0 | 0.00 | 0.00 | 0.00 | 94 | 1017.2 |
| 20260510095915 | 59 | 230 | 4.0 | 9.0 | 0.00 | 0.00 | 0.00 | 94 | 1017.2 |
| 20260510095814 | 59 | 221 | 4.0 | 9.0 | 0.00 | 0.00 | 0.00 | 94 | 1017.2 |
| 20260510095746 | 59 | 209 | 4.0 | 9.0 | 0.00 | 0.00 | 0.00 | 94 | 1017.1 |
| 20260510095735 | 59 | 233 | 4.0 | 9.0 | 0.00 | 0.00 | 0.00 | 94 | 1017.2 |
| 20260510095513 | 59 | 222 | 4.0 | 9.0 | 0.00 | 0.00 | 0.00 | 94 | 1017.1 |
| 20260510095412 | 59 | 246 | 4.0 | 9.0 | 0.00 | 0.00 | 0.00 | 94 | 1017.1 |
| 20260510095309 | 59 | 211 | 4.0 | 10.0 | 0.00 | 0.00 | 0.00 | 94 | 1017.1 |
| 20260510095210 | 59 | 209 | 4.0 | 10.0 | 0.00 | 0.00 | 0.00 | 94 | 1017.1 |
| 20260510095109 | 59 | 218 | 4.0 | 10.0 | 0.00 | 0.00 | 0.00 | 94 | 1017.1 |
| 20260510095010 | 59 | 218 | 4.0 | 10.0 | 0.00 | 0.00 | 0.00 | 94 | 1017.0 |
| 20260510094911 | 59 | 243 | 4.0 | 10.0 | 0.00 | 0.00 | 0.00 | 94 | 1017.1 |
| 20260510094807 | 59 | 245 | 4.0 | 10.0 | 0.00 | 0.00 | 0.00 | 94 | 1017.1 |
| 20260510094706 | 59 | 225 | 4.0 | 10.0 | 0.00 | 0.00 | 0.00 | 94 | 1017.1 |
| 20260510094606 | 59 | 227 | 4.0 | 10.0 | 0.00 | 0.00 | 0.00 | 94 | 1017.1 |
| 20260510094506 | 59 | 235 | 4.0 | 10.0 | 0.00 | 0.00 | 0.00 | 94 | 1017.0 |
| 20260510094404 | 59 | 211 | 4.0 | 10.0 | 0.00 | 0.00 | 0.00 | 94 | 1017.1 |
| 20260510094301 | 59 | 223 | 4.0 | 8.0 | 0.00 | 0.00 | 0.00 | 94 | 1017.1 |
| 20260510094201 | 59 | 209 | 4.0 | 9.0 | 0.00 | 0.00 | 0.00 | 94 | 1017.1 |
| 20260510094101 | 59 | 224 | 4.0 | 9.0 | 0.00 | 0.00 | 0.00 | 94 | 1017.1 |
| 20260510094034 | 59 | 221 | 4.0 | 9.0 | 0.00 | 0.00 | 0.00 | 94 | 1017.0 |
| 20260510094021 | 59 | 279 | 4.0 | 9.0 | 0.00 | 0.00 | 0.00 | 94 | 1017.0 |
| 20260510093756 | 59 | 205 | 4.0 | 9.0 | 0.00 | 0.00 | 0.00 | 94 | 1017.0 |
| 20260510093706 | 59 | 221 | 4.0 | 9.0 | 0.00 | 0.00 | 0.00 | 94 | 1017.0 |
| 20260510093656 | 59 | 198 | 4.0 | 9.0 | 0.00 | 0.00 | 0.00 | 94 | 1017.0 |
| 20260510093640 | 59 | 219 | 4.0 | 9.0 | 0.00 | 0.00 | 0.00 | 94 | 1017.0 |
| 20260510093356 | 59 | 206 | 4.0 | 9.0 | 0.00 | 0.00 | 0.00 | 94 | 1017.0 |
| 20260510093328 | 59 | 201 | 4.0 | 9.0 | 0.00 | 0.00 | 0.00 | 94 | 1016.9 |
| 20260510093319 | 59 | 250 | 4.0 | 9.0 | 0.00 | 0.00 | 0.00 | 94 | 1016.9 |
| 20260510093128 | 59 | 217 | 4.0 | 9.0 | 0.00 | 0.00 | 0.00 | 94 | 1017.0 |
| 20260510093118 | 59 | 204 | 4.0 | 9.0 | 0.00 | 0.00 | 0.00 | 94 | 1016.9 |
| 20260510092856 | 59 | 221 | 4.0 | 9.0 | 0.00 | 0.00 | 0.00 | 94 | 1017.0 |
| 20260510092755 | 59 | 275 | 4.0 | 10.0 | 0.00 | 0.00 | 0.00 | 94 | 1017.0 |
| 20260510092726 | 59 | 278 | 4.0 | 10.0 | 0.00 | 0.00 | 0.00 | 94 | 1017.0 |
| 20260510092715 | 59 | 199 | 4.0 | 10.0 | 0.00 | 0.00 | 0.00 | 94 | 1017.0 |
| 20260510092454 | 59 | 198 | 4.0 | 10.0 | 0.00 | 0.00 | 0.00 | 94 | 1016.9 |
| 20260510092352 | 59 | 205 | 4.0 | 10.0 | 0.00 | 0.00 | 0.00 | 94 | 1017.0 |
| 20260510092253 | 59 | 205 | 4.0 | 10.0 | 0.00 | 0.00 | 0.00 | 94 | 1017.0 |
| 20260510092154 | 59 | 200 | 4.0 | 10.0 | 0.00 | 0.00 | 0.00 | 94 | 1016.9 |
| 20260510092047 | 59 | 244 | 4.0 | 10.0 | 0.00 | 0.00 | 0.00 | 94 | 1016.9 |
| 20260510091948 | 59 | 187 | 4.0 | 10.0 | 0.00 | 0.00 | 0.00 | 94 | 1016.9 |
| 20260510091918 | 59 | 209 | 4.0 | 9.0 | 0.00 | 0.00 | 0.00 | 94 | 1016.8 |
| 20260510091908 | 59 | 213 | 4.0 | 9.0 | 0.00 | 0.00 | 0.00 | 94 | 1016.8 |
| 20260510091716 | 59 | 209 | 4.0 | 9.0 | 0.00 | 0.00 | 0.00 | 94 | 1016.8 |
| 20260510091705 | 59 | 207 | 4.0 | 9.0 | 0.00 | 0.00 | 0.00 | 94 | 1016.8 |
| 20260510091440 | 59 | 219 | 4.0 | 9.0 | 0.00 | 0.00 | 0.00 | 94 | 1016.8 |
| 20260510091410 | 59 | 238 | 4.0 | 9.0 | 0.00 | 0.00 | 0.00 | 94 | 1016.7 |
| 20260510091359 | 59 | 215 | 4.0 | 9.0 | 0.00 | 0.00 | 0.00 | 94 | 1016.7 |
| 20260510091139 | 59 | 197 | 4.0 | 11.0 | 0.00 | 0.00 | 0.00 | 94 | 1016.7 |
| 20260510091036 | 59 | 225 | 4.0 | 11.0 | 0.00 | 0.00 | 0.00 | 94 | 1016.8 |
| 20260510091014 | 59 | 197 | 4.0 | 11.0 | 0.00 | 0.00 | 0.00 | 94 | 1016.7 |
| 20260510091001 | 59 | 221 | 4.0 | 11.0 | 0.00 | 0.00 | 0.00 | 94 | 1016.7 |
| 20260510090735 | 59 | 195 | 4.0 | 11.0 | 0.00 | 0.00 | 0.00 | 94 | 1016.8 |
| 20260510090633 | 59 | 232 | 4.0 | 11.0 | 0.00 | 0.00 | 0.00 | 94 | 1016.8 |
| 20260510090534 | 59 | 214 | 4.0 | 11.0 | 0.00 | 0.00 | 0.00 | 94 | 1016.7 |
| 20260510090433 | 59 | 229 | 4.0 | 11.0 | 0.00 | 0.00 | 0.00 | 94 | 1016.8 |
| 20260510090333 | 59 | 232 | 5.0 | 11.0 | 0.00 | 0.00 | 0.00 | 94 | 1016.7 |
| 20260510090233 | 59 | 211 | 5.0 | 11.0 | 0.00 | 0.00 | 0.00 | 94 | 1016.7 |
| 20260510090133 | 59 | 204 | 5.0 | 11.0 | 0.00 | 0.00 | 0.00 | 94 | 1016.7 |
| 20260510090032 | 59 | 212 | 5.0 | 12.0 | 0.00 | 0.00 | 0.00 | 94 | 1016.7 |
| 20260510085933 | 59 | 202 | 5.0 | 12.0 | 0.00 | 0.00 | 0.00 | 94 | 1016.7 |
| 20260510085842 | 59 | 221 | 5.0 | 12.0 | 0.00 | 0.00 | 0.00 | 94 | 1016.5 |
| 20260510085832 | 59 | 203 | 5.0 | 12.0 | 0.00 | 0.00 | 0.00 | 94 | 1016.7 |
| 20260510085825 | 59 | 196 | 5.0 | 12.0 | 0.00 | 0.00 | 0.00 | 94 | 1016.5 |
| 20260510085805 | 59 | 177 | 5.0 | 12.0 | 0.00 | 0.00 | 0.00 | 94 | 1016.5 |
| 20260510085429 | 59 | 211 | 5.0 | 12.0 | 0.00 | 0.00 | 0.00 | 94 | 1016.5 |
| 20260510085328 | 59 | 193 | 5.0 | 12.0 | 0.00 | 0.00 | 0.00 | 94 | 1016.5 |
| 20260510085230 | 59 | 196 | 5.0 | 12.0 | 0.00 | 0.00 | 0.00 | 94 | 1016.7 |
| 20260510085159 | 59 | 232 | 5.0 | 11.0 | 0.00 | 0.00 | 0.00 | 94 | 1016.5 |
| 20260510085149 | 59 | 228 | 5.0 | 12.0 | 0.00 | 0.00 | 0.00 | 94 | 1016.5 |
| 20260510084928 | 59 | 212 | 4.0 | 11.0 | 0.00 | 0.00 | 0.00 | 94 | 1016.5 |
| 20260510084827 | 59 | 232 | 4.0 | 10.0 | 0.00 | 0.00 | 0.00 | 94 | 1016.5 |
| 20260510084727 | 59 | 209 | 4.0 | 10.0 | 0.00 | 0.00 | 0.00 | 94 | 1016.5 |
| 20260510084702 | 59 | 206 | 4.0 | 10.0 | 0.00 | 0.00 | 0.00 | 94 | 1016.4 |
| 20260510084648 | 59 | 206 | 4.0 | 10.0 | 0.00 | 0.00 | 0.00 | 94 | 1016.5 |
| 20260510084429 | 59 | 200 | 4.0 | 10.0 | 0.00 | 0.00 | 0.00 | 94 | 1016.4 |
| 20260510084327 | 59 | 246 | 4.0 | 11.0 | 0.00 | 0.00 | 0.00 | 94 | 1016.3 |
| 20260510084224 | 59 | 207 | 4.0 | 11.0 | 0.00 | 0.00 | 0.00 | 94 | 1016.3 |
| 20260510084125 | 59 | 221 | 5.0 | 11.0 | 0.00 | 0.00 | 0.00 | 94 | 1016.3 |
| 20260510084025 | 59 | 252 | 5.0 | 11.0 | 0.00 | 0.00 | 0.00 | 94 | 1016.2 |
| 20260510083924 | 59 | 250 | 5.0 | 11.0 | 0.00 | 0.00 | 0.00 | 94 | 1016.2 |
| 20260510083826 | 59 | 238 | 5.0 | 11.0 | 0.00 | 0.00 | 0.00 | 94 | 1016.2 |
| 20260510083724 | 59 | 222 | 5.0 | 11.0 | 0.00 | 0.00 | 0.00 | 94 | 1016.1 |
| 20260510083618 | 59 | 213 | 5.0 | 11.0 | 0.00 | 0.00 | 0.00 | 94 | 1016.1 |
| 20260510083516 | 59 | 242 | 5.0 | 11.0 | 0.00 | 0.00 | 0.00 | 94 | 1016.1 |
| 20260510083451 | 59 | 240 | 5.0 | 10.0 | 0.00 | 0.00 | 0.00 | 94 | 1016.1 |
| 20260510083440 | 59 | 192 | 5.0 | 11.0 | 0.00 | 0.00 | 0.00 | 94 | 1016.1 |
| 20260510083217 | 59 | 242 | 4.0 | 10.0 | 0.00 | 0.00 | 0.00 | 94 | 1016.1 |
| 20260510083112 | 59 | 210 | 4.0 | 10.0 | 0.00 | 0.00 | 0.00 | 94 | 1016.0 |
| 20260510083010 | 59 | 202 | 4.0 | 10.0 | 0.00 | 0.00 | 0.00 | 94 | 1016.1 |
| 20260510082912 | 59 | 225 | 4.0 | 11.0 | 0.00 | 0.00 | 0.00 | 94 | 1016.1 |
| 20260510082812 | 59 | 216 | 4.0 | 11.0 | 0.00 | 0.00 | 0.00 | 94 | 1016.0 |
| 20260510082712 | 59 | 224 | 4.0 | 11.0 | 0.00 | 0.00 | 0.00 | 94 | 1016.1 |
| 20260510082606 | 59 | 229 | 4.0 | 11.0 | 0.00 | 0.00 | 0.00 | 94 | 1016.0 |
| 20260510082505 | 59 | 236 | 4.0 | 11.0 | 0.00 | 0.00 | 0.00 | 94 | 1016.0 |
| 20260510082405 | 59 | 211 | 4.0 | 11.0 | 0.00 | 0.00 | 0.00 | 93 | 1016.0 |
| 20260510082306 | 59 | 205 | 4.0 | 13.0 | 0.00 | 0.00 | 0.00 | 93 | 1016.0 |
| 20260510082204 | 59 | 200 | 4.0 | 13.0 | 0.00 | 0.00 | 0.00 | 93 | 1016.0 |
| 20260510082107 | 59 | 221 | 4.0 | 13.0 | 0.00 | 0.00 | 0.00 | 93 | 1015.9 |
| 20260510082003 | 59 | 212 | 4.0 | 13.0 | 0.00 | 0.00 | 0.00 | 93 | 1015.9 |
| 20260510081902 | 59 | 224 | 4.0 | 13.0 | 0.00 | 0.00 | 0.00 | 93 | 1015.9 |
| 20260510081800 | 59 | 236 | 4.0 | 13.0 | 0.00 | 0.00 | 0.00 | 93 | 1015.9 |
| 20260510081735 | 59 | 226 | 4.0 | 13.0 | 0.00 | 0.00 | 0.00 | 93 | 1015.9 |
| 20260510081723 | 59 | 202 | 4.0 | 13.0 | 0.00 | 0.00 | 0.00 | 93 | 1015.9 |
| 20260510081500 | 59 | 226 | 4.0 | 13.0 | 0.00 | 0.00 | 0.00 | 93 | 1015.9 |
| 20260510081359 | 59 | 208 | 4.0 | 13.0 | 0.00 | 0.00 | 0.00 | 93 | 1015.9 |
| 20260510081259 | 59 | 224 | 4.0 | 10.0 | 0.00 | 0.00 | 0.00 | 93 | 1015.9 |
| 20260510081224 | 59 | 213 | 5.0 | 12.0 | 0.00 | 0.00 | 0.00 | 93 | 1015.7 |
| 20260510081220 | 59 | 210 | 5.0 | 12.0 | 0.00 | 0.00 | 0.00 | 93 | 1015.8 |
| 20260510081214 | 59 | 220 | 5.0 | 12.0 | 0.00 | 0.00 | 0.00 | 93 | 1015.8 |
| 20260510081203 | 59 | 218 | 4.0 | 12.0 | 0.00 | 0.00 | 0.00 | 93 | 1015.9 |
| 20260510081142 | 59 | 202 | 4.0 | 12.0 | 0.00 | 0.00 | 0.00 | 93 | 1015.8 |
| 20260510081017 | 59 | 232 | 4.0 | 12.0 | 0.00 | 0.00 | 0.00 | 93 | 1015.8 |
| 20260510080956 | 59 | 213 | 4.0 | 12.0 | 0.00 | 0.00 | 0.00 | 93 | 1015.8 |
| 20260510080455 | 59 | 213 | 5.0 | 12.0 | 0.00 | 0.00 | 0.00 | 93 | 1015.8 |
| 20260510080348 | 59 | 203 | 5.0 | 12.0 | 0.00 | 0.00 | 0.00 | 93 | 1015.7 |
| 20260510080247 | 59 | 211 | 4.0 | 12.0 | 0.00 | 0.00 | 0.00 | 93 | 1015.8 |
| 20260510080228 | 59 | 231 | 4.0 | 12.0 | 0.00 | 0.00 | 0.00 | 93 | 1015.8 |
| 20260510080215 | 59 | 194 | 4.0 | 12.0 | 0.00 | 0.00 | 0.00 | 93 | 1015.7 |
| 20260510075948 | 59 | 223 | 4.0 | 12.0 | 0.00 | 0.00 | 0.00 | 93 | 1015.7 |
| 20260510075914 | 59 | 217 | 4.0 | 11.0 | 0.00 | 0.00 | 0.00 | 92 | 1015.7 |
| 20260510075904 | 59 | 209 | 4.0 | 12.0 | 0.00 | 0.00 | 0.00 | 93 | 1015.7 |
| 20260510075642 | 59 | 207 | 4.0 | 11.0 | 0.00 | 0.00 | 0.00 | 92 | 1015.7 |
| 20260510075540 | 59 | 217 | 5.0 | 11.0 | 0.00 | 0.00 | 0.00 | 92 | 1015.7 |
| 20260510075442 | 59 | 213 | 4.0 | 11.0 | 0.00 | 0.00 | 0.00 | 92 | 1015.7 |
| 20260510075328 | 59 | 199 | 4.0 | 11.0 | 0.00 | 0.00 | 0.00 | 92 | 1015.7 |
| 20260510075229 | 59 | 219 | 5.0 | 14.0 | 0.00 | 0.00 | 0.00 | 92 | 1015.7 |
| 20260510075128 | 59 | 223 | 5.0 | 14.0 | 0.00 | 0.00 | 0.00 | 92 | 1015.7 |
| 20260510075028 | 59 | 207 | 5.0 | 14.0 | 0.00 | 0.00 | 0.00 | 92 | 1015.7 |
| 20260510074929 | 59 | 192 | 5.0 | 14.0 | 0.00 | 0.00 | 0.00 | 92 | 1015.7 |
| 20260510074822 | 59 | 215 | 5.0 | 14.0 | 0.00 | 0.00 | 0.00 | 92 | 1015.7 |
| 20260510074754 | 59 | 217 | 5.0 | 14.0 | 0.00 | 0.00 | 0.00 | 92 | 1015.7 |
| 20260510074745 | 59 | 250 | 5.0 | 14.0 | 0.00 | 0.00 | 0.00 | 92 | 1015.7 |
| 20260510074556 | 59 | 206 | 5.0 | 14.0 | 0.00 | 0.00 | 0.00 | 92 | 1015.7 |
| 20260510074544 | 59 | 205 | 5.0 | 14.0 | 0.00 | 0.00 | 0.00 | 92 | 1015.7 |
| 20260510074317 | 59 | 213 | 5.0 | 14.0 | 0.00 | 0.00 | 0.00 | 92 | 1015.7 |
| 20260510074217 | 59 | 209 | 5.0 | 10.0 | 0.00 | 0.00 | 0.00 | 92 | 1015.8 |
| 20260510074151 | 59 | 211 | 5.0 | 10.0 | 0.00 | 0.00 | 0.00 | 92 | 1015.7 |
| 20260510074139 | 59 | 229 | 5.0 | 10.0 | 0.00 | 0.00 | 0.00 | 92 | 1015.8 |
| 20260510073918 | 59 | 219 | 5.0 | 11.0 | 0.00 | 0.00 | 0.00 | 92 | 1015.7 |
| 20260510073806 | 59 | 217 | 5.0 | 11.0 | 0.00 | 0.00 | 0.00 | 92 | 1015.7 |
| 20260510073706 | 59 | 203 | 4.0 | 11.0 | 0.00 | 0.00 | 0.00 | 92 | 1015.7 |
| 20260510073605 | 59 | 191 | 4.0 | 11.0 | 0.00 | 0.00 | 0.00 | 92 | 1015.7 |
| 20260510073507 | 59 | 223 | 5.0 | 11.0 | 0.00 | 0.00 | 0.00 | 92 | 1015.6 |
| 20260510073407 | 59 | 213 | 5.0 | 11.0 | 0.00 | 0.00 | 0.00 | 92 | 1015.7 |
| 20260510073301 | 59 | 226 | 5.0 | 11.0 | 0.00 | 0.00 | 0.00 | 92 | 1015.7 |
| 20260510073200 | 59 | 220 | 5.0 | 11.0 | 0.00 | 0.00 | 0.00 | 92 | 1015.6 |
| 20260510073100 | 59 | 209 | 5.0 | 11.0 | 0.00 | 0.00 | 0.00 | 92 | 1015.7 |
| 20260510072959 | 59 | 228 | 5.0 | 11.0 | 0.00 | 0.00 | 0.00 | 92 | 1015.7 |
| 20260510072900 | 59 | 231 | 5.0 | 11.0 | 0.00 | 0.00 | 0.00 | 91 | 1015.7 |
| 20260510072752 | 59 | 219 | 5.0 | 12.0 | 0.00 | 0.00 | 0.00 | 91 | 1015.7 |
| 20260510072652 | 60 | 207 | 5.0 | 12.0 | 0.00 | 0.00 | 0.00 | 92 | 1015.7 |
| 20260510072555 | 59 | 200 | 5.0 | 13.0 | 0.00 | 0.00 | 0.00 | 92 | 1015.7 |
| 20260510072529 | 60 | 214 | 5.0 | 13.0 | 0.00 | 0.00 | 0.00 | 91 | 1015.8 |
| 20260510072517 | 59 | 200 | 5.0 | 13.0 | 0.00 | 0.00 | 0.00 | 91 | 1015.7 |
| 20260510072241 | 60 | 228 | 5.0 | 13.0 | 0.00 | 0.00 | 0.00 | 91 | 1015.7 |
| 20260510072159 | 60 | 213 | 5.0 | 13.0 | 0.00 | 0.00 | 0.00 | 91 | 1015.7 |
| 20260510072154 | 60 | 209 | 5.0 | 13.0 | 0.00 | 0.00 | 0.00 | 91 | 1015.6 |
| 20260510072143 | 60 | 210 | 5.0 | 13.0 | 0.00 | 0.00 | 0.00 | 91 | 1015.7 |
| 20260510072122 | 60 | 213 | 5.0 | 13.0 | 0.00 | 0.00 | 0.00 | 91 | 1015.7 |
| 20260510071740 | 60 | 228 | 5.0 | 13.0 | 0.00 | 0.00 | 0.00 | 91 | 1015.7 |
| 20260510071641 | 60 | 229 | 5.0 | 13.0 | 0.00 | 0.00 | 0.00 | 91 | 1015.7 |
| 20260510071541 | 60 | 222 | 5.0 | 13.0 | 0.00 | 0.00 | 0.00 | 91 | 1015.8 |
| 20260510071442 | 60 | 212 | 5.0 | 13.0 | 0.00 | 0.00 | 0.00 | 91 | 1015.7 |
| 20260510071350 | 60 | 207 | 5.0 | 13.0 | 0.00 | 0.00 | 0.00 | 91 | 1015.7 |
| 20260510071240 | 60 | 206 | 5.0 | 13.0 | 0.00 | 0.00 | 0.00 | 91 | 1015.7 |
| 20260510071146 | 60 | 219 | 5.0 | 13.0 | 0.00 | 0.00 | 0.00 | 91 | 1015.7 |
| 20260510071041 | 60 | 204 | 5.0 | 13.0 | 0.00 | 0.00 | 0.00 | 91 | 1015.8 |
| 20260510070943 | 60 | 195 | 5.0 | 13.0 | 0.00 | 0.00 | 0.00 | 91 | 1015.8 |
| 20260510070842 | 60 | 216 | 5.0 | 13.0 | 0.00 | 0.00 | 0.00 | 91 | 1015.7 |
| 20260510070742 | 60 | 236 | 5.0 | 13.0 | 0.00 | 0.00 | 0.00 | 91 | 1015.7 |
| 20260510070712 | 60 | 209 | 5.0 | 12.0 | 0.00 | 0.00 | 0.00 | 91 | 1015.7 |
| 20260510070700 | 60 | 270 | 5.0 | 12.0 | 0.00 | 0.00 | 0.00 | 91 | 1015.8 |
| 20260510070435 | 60 | 213 | 5.0 | 13.0 | 0.00 | 0.00 | 0.00 | 91 | 1015.7 |
| 20260510070335 | 60 | 207 | 5.0 | 13.0 | 0.00 | 0.00 | 0.00 | 91 | 1015.7 |
| 20260510070306 | 60 | 196 | 5.0 | 13.0 | 0.00 | 0.00 | 0.00 | 90 | 1015.7 |
| 20260510070255 | 60 | 193 | 5.0 | 13.0 | 0.00 | 0.00 | 0.00 | 91 | 1015.8 |
| 20260510070037 | 60 | 222 | 5.0 | 13.0 | 0.00 | 0.00 | 0.00 | 90 | 1015.7 |
| 20260510065937 | 60 | 202 | 5.0 | 13.0 | 0.00 | 0.00 | 0.00 | 90 | 1015.7 |
| 20260510065847 | 60 | 213 | 5.0 | 13.0 | 0.00 | 0.00 | 0.00 | 90 | 1015.7 |
| 20260510065839 | 60 | 202 | 5.0 | 13.0 | 0.00 | 0.00 | 0.00 | 90 | 1015.8 |
| 20260510065831 | 60 | 212 | 5.0 | 13.0 | 0.00 | 0.00 | 0.00 | 90 | 1015.7 |
| 20260510065814 | 60 | 208 | 5.0 | 13.0 | 0.00 | 0.00 | 0.00 | 90 | 1015.7 |
| 20260510065438 | 60 | 214 | 5.0 | 12.0 | 0.00 | 0.00 | 0.00 | 90 | 1015.7 |
| 20260510065334 | 60 | 265 | 5.0 | 12.0 | 0.00 | 0.00 | 0.00 | 90 | 1015.7 |
| 20260510065235 | 60 | 202 | 5.0 | 12.0 | 0.00 | 0.00 | 0.00 | 90 | 1015.7 |
| 20260510065133 | 60 | 210 | 5.0 | 12.0 | 0.00 | 0.00 | 0.00 | 90 | 1015.8 |
| 20260510065034 | 60 | 198 | 5.0 | 12.0 | 0.00 | 0.00 | 0.00 | 90 | 1015.8 |
| 20260510064934 | 60 | 211 | 5.0 | 12.0 | 0.00 | 0.00 | 0.00 | 90 | 1015.8 |
| 20260510064830 | 60 | 207 | 5.0 | 12.0 | 0.00 | 0.00 | 0.00 | 90 | 1015.7 |
| 20260510064727 | 60 | 197 | 5.0 | 12.0 | 0.00 | 0.00 | 0.00 | 90 | 1015.8 |
| 20260510064627 | 60 | 209 | 5.0 | 13.0 | 0.00 | 0.00 | 0.00 | 90 | 1015.9 |
| 20260510064528 | 60 | 221 | 5.0 | 13.0 | 0.00 | 0.00 | 0.00 | 90 | 1015.8 |
| 20260510064427 | 59 | 214 | 5.0 | 13.0 | 0.00 | 0.00 | 0.00 | 90 | 1015.8 |
| 20260510064327 | 60 | 224 | 5.0 | 13.0 | 0.00 | 0.00 | 0.00 | 90 | 1015.8 |
| 20260510064226 | 60 | 218 | 5.0 | 13.0 | 0.00 | 0.00 | 0.00 | 89 | 1015.8 |
| 20260510064125 | 60 | 214 | 5.0 | 13.0 | 0.00 | 0.00 | 0.00 | 89 | 1015.8 |
| 20260510064024 | 60 | 207 | 5.0 | 13.0 | 0.00 | 0.00 | 0.00 | 89 | 1015.8 |
| 20260510063953 | 60 | 196 | 5.0 | 13.0 | 0.00 | 0.00 | 0.00 | 89 | 1015.8 |
| 20260510063943 | 60 | 194 | 5.0 | 13.0 | 0.00 | 0.00 | 0.00 | 89 | 1015.8 |
| 20260510063718 | 60 | 214 | 4.0 | 10.0 | 0.00 | 0.00 | 0.00 | 89 | 1015.8 |
| 20260510063620 | 60 | 216 | 4.0 | 10.0 | 0.00 | 0.00 | 0.00 | 89 | 1015.8 |
| 20260510063552 | 60 | 205 | 4.0 | 10.0 | 0.00 | 0.00 | 0.00 | 89 | 1015.8 |
| 20260510063540 | 60 | 221 | 4.0 | 10.0 | 0.00 | 0.00 | 0.00 | 89 | 1015.8 |
| 20260510063349 | 60 | 209 | 4.0 | 9.0 | 0.00 | 0.00 | 0.00 | 89 | 1015.8 |
| 20260510063339 | 60 | 213 | 4.0 | 9.0 | 0.00 | 0.00 | 0.00 | 89 | 1015.8 |
| 20260510063116 | 60 | 214 | 4.0 | 9.0 | 0.00 | 0.00 | 0.00 | 89 | 1015.9 |
| 20260510063050 | 60 | 214 | 4.0 | 9.0 | 0.00 | 0.00 | 0.00 | 88 | 1015.8 |
| 20260510063041 | 60 | 209 | 4.0 | 9.0 | 0.00 | 0.00 | 0.00 | 89 | 1015.8 |
| 20260510062817 | 60 | 196 | 4.0 | 9.0 | 0.00 | 0.00 | 0.00 | 88 | 1016.2 |
| 20260510062734 | 60 | 192 | 5.0 | 10.0 | 0.00 | 0.00 | 0.00 | 88 | 1015.8 |
| 20260510062729 | 60 | 178 | 5.0 | 10.0 | 0.00 | 0.00 | 0.00 | 88 | 1015.8 |
| 20260510062718 | 60 | 230 | 5.0 | 9.0 | 0.00 | 0.00 | 0.00 | 88 | 1015.9 |
| 20260510062656 | 60 | 214 | 5.0 | 10.0 | 0.00 | 0.00 | 0.00 | 88 | 1015.8 |
| 20260510062316 | 60 | 210 | 5.0 | 10.0 | 0.00 | 0.00 | 0.00 | 88 | 1015.8 |
| 20260510062227 | 60 | 192 | 5.0 | 10.0 | 0.00 | 0.00 | 0.00 | 88 | 1015.9 |
| 20260510062218 | 60 | 229 | 5.0 | 10.0 | 0.00 | 0.00 | 0.00 | 88 | 1015.9 |
| 20260510062154 | 60 | 232 | 5.0 | 10.0 | 0.00 | 0.00 | 0.00 | 88 | 1015.8 |
| 20260510062033 | 60 | 219 | 5.0 | 10.0 | 0.00 | 0.00 | 0.00 | 88 | 1015.9 |
| 20260510061806 | 60 | 205 | 5.0 | 10.0 | 0.00 | 0.00 | 0.00 | 88 | 1015.9 |
| 20260510061745 | 60 | 199 | 5.0 | 10.0 | 0.00 | 0.00 | 0.00 | 88 | 1015.9 |
| 20260510061732 | 60 | 192 | 4.0 | 10.0 | 0.00 | 0.00 | 0.00 | 88 | 1015.9 |
| 20260510061506 | 60 | 220 | 5.0 | 11.0 | 0.00 | 0.00 | 0.00 | 88 | 1015.9 |
| 20260510061408 | 60 | 206 | 4.0 | 11.0 | 0.00 | 0.00 | 0.00 | 87 | 1015.9 |
| 20260510061343 | 60 | 190 | 5.0 | 12.0 | 0.00 | 0.00 | 0.00 | 87 | 1015.9 |
| 20260510061338 | 60 | 215 | 5.0 | 12.0 | 0.00 | 0.00 | 0.00 | 87 | 1015.9 |
| 20260510061332 | 60 | 215 | 5.0 | 12.0 | 0.00 | 0.00 | 0.00 | 87 | 1015.9 |
| 20260510061328 | 60 | 213 | 5.0 | 12.0 | 0.00 | 0.00 | 0.00 | 87 | 1015.9 |
| 20260510061322 | 60 | 220 | 5.0 | 14.0 | 0.00 | 0.00 | 0.00 | 86 | 1016.0 |
| 20260510061311 | 60 | 231 | 4.0 | 11.0 | 0.00 | 0.00 | 0.00 | 87 | 1015.9 |
| 20260510061304 | 60 | 207 | 5.0 | 16.0 | 0.00 | 0.00 | 0.00 | 86 | 1016.0 |
| 20260510061243 | 60 | 195 | 5.0 | 12.0 | 0.00 | 0.00 | 0.00 | 87 | 1015.9 |
| 20260510061104 | 60 | 204 | 5.0 | 12.0 | 0.00 | 0.00 | 0.00 | 87 | 1015.9 |
| 20260510060805 | 60 | 207 | 5.0 | 12.0 | 0.00 | 0.00 | 0.00 | 87 | 1015.9 |
| 20260510060259 | 60 | 173 | 5.0 | 16.0 | 0.00 | 0.00 | 0.00 | 86 | 1016.0 |
| 20260510060158 | 60 | 214 | 5.0 | 16.0 | 0.00 | 0.00 | 0.00 | 86 | 1016.0 |
| 20260510060056 | 60 | 231 | 5.0 | 16.0 | 0.00 | 0.00 | 0.00 | 86 | 1016.0 |
| 20260510060000 | 60 | 221 | 5.0 | 16.0 | 0.00 | 0.00 | 0.00 | 86 | 1015.9 |
| 20260510055924 | 60 | 223 | 5.0 | 16.0 | 0.00 | 0.00 | 0.00 | 86 | 1015.9 |
| 20260510055913 | 60 | 219 | 5.0 | 16.0 | 0.00 | 0.00 | 0.00 | 86 | 1016.0 |
| 20260510055652 | 60 | 237 | 5.0 | 16.0 | 0.00 | 0.00 | 0.00 | 86 | 1016.0 |
| 20260510055552 | 60 | 242 | 5.0 | 16.0 | 0.00 | 0.00 | 0.00 | 86 | 1016.0 |
| 20260510055452 | 60 | 209 | 5.0 | 15.0 | 0.00 | 0.00 | 0.00 | 86 | 1015.9 |
| 20260510055351 | 60 | 209 | 5.0 | 11.0 | 0.00 | 0.00 | 0.00 | 86 | 1015.9 |
| 20260510055253 | 60 | 218 | 5.0 | 11.0 | 0.00 | 0.00 | 0.00 | 86 | 1016.0 |
| 20260510055226 | 60 | 182 | 5.0 | 11.0 | 0.00 | 0.00 | 0.00 | 86 | 1015.9 |
| 20260510055216 | 60 | 205 | 5.0 | 11.0 | 0.00 | 0.00 | 0.00 | 86 | 1016.0 |
| 20260510054951 | 60 | 222 | 5.0 | 11.0 | 0.00 | 0.00 | 0.00 | 86 | 1015.9 |
| 20260510054923 | 60 | 235 | 4.0 | 11.0 | 0.00 | 0.00 | 0.00 | 86 | 1016.0 |
| 20260510054912 | 60 | 212 | 5.0 | 11.0 | 0.00 | 0.00 | 0.00 | 86 | 1016.0 |
| 20260510054652 | 60 | 216 | 4.0 | 9.0 | 0.00 | 0.00 | 0.00 | 85 | 1016.0 |
| 20260510054550 | 60 | 209 | 4.0 | 9.0 | 0.00 | 0.00 | 0.00 | 85 | 1016.0 |
| 20260510054520 | 60 | 211 | 4.0 | 8.0 | 0.00 | 0.00 | 0.00 | 85 | 1016.0 |
| 20260510054511 | 60 | 209 | 4.0 | 8.0 | 0.00 | 0.00 | 0.00 | 85 | 1016.0 |
| 20260510054251 | 60 | 215 | 4.0 | 8.0 | 0.00 | 0.00 | 0.00 | 85 | 1016.0 |
| 20260510054227 | 60 | 217 | 4.0 | 10.0 | 0.00 | 0.00 | 0.00 | 85 | 1016.0 |
| 20260510054212 | 60 | 223 | 4.0 | 8.0 | 0.00 | 0.00 | 0.00 | 85 | 1016.0 |
| 20260510053949 | 60 | 210 | 4.0 | 10.0 | 0.00 | 0.00 | 0.00 | 85 | 1016.0 |
| 20260510053924 | 60 | 222 | 4.0 | 12.0 | 0.00 | 0.00 | 0.00 | 84 | 1016.2 |
| 20260510053913 | 60 | 207 | 5.0 | 10.0 | 0.00 | 0.00 | 0.00 | 85 | 1016.1 |
| 20260510053649 | 60 | 232 | 5.0 | 12.0 | 0.00 | 0.00 | 0.00 | 84 | 1016.1 |
| 20260510053550 | 60 | 206 | 5.0 | 12.0 | 0.00 | 0.00 | 0.00 | 84 | 1016.1 |
| 20260510053443 | 60 | 196 | 5.0 | 12.0 | 0.00 | 0.00 | 0.00 | 84 | 1016.1 |
| 20260510053343 | 60 | 200 | 5.0 | 12.0 | 0.00 | 0.00 | 0.00 | 83 | 1016.0 |
| 20260510053244 | 60 | 201 | 5.0 | 15.0 | 0.00 | 0.00 | 0.00 | 83 | 1016.1 |
| 20260510053143 | 61 | 238 | 5.0 | 15.0 | 0.00 | 0.00 | 0.00 | 83 | 1016.2 |
| 20260510053044 | 61 | 209 | 5.0 | 15.0 | 0.00 | 0.00 | 0.00 | 83 | 1016.2 |
| 20260510052944 | 61 | 197 | 5.0 | 15.0 | 0.00 | 0.00 | 0.00 | 83 | 1016.2 |
| 20260510052842 | 61 | 211 | 5.0 | 15.0 | 0.00 | 0.00 | 0.00 | 83 | 1016.2 |
| 20260510052812 | 61 | 207 | 5.0 | 15.0 | 0.00 | 0.00 | 0.00 | 82 | 1016.2 |
| 20260510052801 | 61 | 213 | 5.0 | 15.0 | 0.00 | 0.00 | 0.00 | 83 | 1016.2 |
| 20260510052539 | 61 | 251 | 5.0 | 15.0 | 0.00 | 0.00 | 0.00 | 82 | 1016.2 |
| 20260510052440 | 61 | 209 | 5.0 | 15.0 | 0.00 | 0.00 | 0.00 | 82 | 1016.2 |
| 20260510052339 | 61 | 214 | 5.0 | 15.0 | 0.00 | 0.00 | 0.00 | 82 | 1016.2 |
| 20260510052325 | 61 | 193 | 5.0 | 19.0 | 0.00 | 0.00 | 0.00 | 82 | 1016.1 |
| 20260510052307 | 61 | 211 | 5.0 | 19.0 | 0.00 | 0.00 | 0.00 | 82 | 1016.2 |
| 20260510052150 | 61 | 195 | 5.0 | 19.0 | 0.00 | 0.00 | 0.00 | 82 | 1016.1 |
| 20260510052140 | 61 | 182 | 5.0 | 19.0 | 0.00 | 0.00 | 0.00 | 82 | 1016.2 |
| 20260510052117 | 61 | 259 | 5.0 | 19.0 | 0.00 | 0.00 | 0.00 | 82 | 1016.2 |
| 20260510051731 | 61 | 205 | 5.0 | 19.0 | 0.00 | 0.00 | 0.00 | 82 | 1016.2 |
| 20260510051630 | 61 | 202 | 5.0 | 19.0 | 0.00 | 0.00 | 0.00 | 82 | 1016.1 |
| 20260510051533 | 61 | 175 | 5.0 | 19.0 | 0.00 | 0.00 | 0.00 | 82 | 1016.2 |
| 20260510051506 | 61 | 219 | 5.0 | 19.0 | 0.00 | 0.00 | 0.00 | 82 | 1016.2 |
| 20260510051454 | 61 | 179 | 5.0 | 19.0 | 0.00 | 0.00 | 0.00 | 82 | 1016.2 |
| 20260510051226 | 61 | 211 | 5.0 | 11.0 | 0.00 | 0.00 | 0.00 | 82 | 1016.2 |
| 20260510051126 | 61 | 221 | 5.0 | 11.0 | 0.00 | 0.00 | 0.00 | 82 | 1016.2 |
| 20260510051027 | 61 | 198 | 5.0 | 11.0 | 0.00 | 0.00 | 0.00 | 82 | 1016.2 |
| 20260510050924 | 61 | 198 | 4.0 | 10.0 | 0.00 | 0.00 | 0.00 | 82 | 1016.1 |
| 20260510050853 | 61 | 206 | 4.0 | 9.0 | 0.00 | 0.00 | 0.00 | 82 | 1016.1 |
| 20260510050844 | 61 | 219 | 4.0 | 10.0 | 0.00 | 0.00 | 0.00 | 82 | 1016.1 |
| 20260510050620 | 61 | 235 | 4.0 | 10.0 | 0.00 | 0.00 | 0.00 | 82 | 1016.1 |
| 20260510050520 | 61 | 201 | 4.0 | 10.0 | 0.00 | 0.00 | 0.00 | 82 | 1016.1 |
| 20260510050421 | 61 | 192 | 4.0 | 10.0 | 0.00 | 0.00 | 0.00 | 82 | 1016.1 |
| 20260510050318 | 61 | 202 | 4.0 | 10.0 | 0.00 | 0.00 | 0.00 | 82 | 1016.1 |
| 20260510050218 | 61 | 213 | 4.0 | 10.0 | 0.00 | 0.00 | 0.00 | 82 | 1016.1 |
| 20260510050150 | 61 | 205 | 4.0 | 13.0 | 0.00 | 0.00 | 0.00 | 82 | 1016.1 |
| 20260510050140 | 61 | 196 | 4.0 | 10.0 | 0.00 | 0.00 | 0.00 | 82 | 1016.1 |
| 20260510045916 | 61 | 209 | 4.0 | 13.0 | 0.00 | 0.00 | 0.00 | 82 | 1016.1 |
| 20260510045815 | 61 | 194 | 4.0 | 13.0 | 0.00 | 0.00 | 0.00 | 82 | 1016.1 |
| 20260510045719 | 61 | 185 | 4.0 | 13.0 | 0.00 | 0.00 | 0.00 | 82 | 1016.1 |
| 20260510045645 | 61 | 215 | 4.0 | 10.0 | 0.00 | 0.00 | 0.00 | 82 | 1016.0 |
| 20260510045640 | 61 | 221 | 4.0 | 13.0 | 0.00 | 0.00 | 0.00 | 82 | 1016.0 |
| 20260510045626 | 61 | 207 | 4.0 | 13.0 | 0.00 | 0.00 | 0.00 | 82 | 1016.1 |
| 20260510045607 | 61 | 202 | 4.0 | 13.0 | 0.00 | 0.00 | 0.00 | 82 | 1016.0 |
| 20260510045316 | 61 | 232 | 4.0 | 13.0 | 0.00 | 0.00 | 0.00 | 82 | 1016.0 |
| 20260510045309 | 61 | 222 | 4.0 | 10.0 | 0.00 | 0.00 | 0.00 | 82 | 1016.0 |
| 20260510045253 | 61 | 211 | 4.0 | 13.0 | 0.00 | 0.00 | 0.00 | 82 | 1016.0 |
| 20260510044912 | 61 | 203 | 4.0 | 12.0 | 0.00 | 0.00 | 0.00 | 82 | 1016.0 |
| 20260510044808 | 61 | 216 | 4.0 | 12.0 | 0.00 | 0.00 | 0.00 | 82 | 1016.0 |
| 20260510044709 | 61 | 209 | 4.0 | 12.0 | 0.00 | 0.00 | 0.00 | 82 | 1016.0 |
| 20260510044611 | 61 | 205 | 4.0 | 12.0 | 0.00 | 0.00 | 0.00 | 82 | 1016.0 |
| 20260510044603 | 61 | 219 | 4.0 | 12.0 | 0.00 | 0.00 | 0.00 | 82 | 1015.9 |
| 20260510044559 | 61 | 212 | 4.0 | 12.0 | 0.00 | 0.00 | 0.00 | 82 | 1016.1 |
| 20260510044554 | 61 | 190 | 4.0 | 12.0 | 0.00 | 0.00 | 0.00 | 82 | 1016.0 |
| 20260510044536 | 61 | 214 | 4.0 | 12.0 | 0.00 | 0.00 | 0.00 | 82 | 1016.0 |
| 20260510044412 | 61 | 206 | 4.0 | 12.0 | 0.00 | 0.00 | 0.00 | 82 | 1016.0 |
| 20260510044405 | 61 | 217 | 4.0 | 12.0 | 0.00 | 0.00 | 0.00 | 82 | 1016.0 |
| 20260510044350 | 61 | 192 | 4.0 | 12.0 | 0.00 | 0.00 | 0.00 | 82 | 1016.0 |
| 20260510044212 | 61 | 188 | 4.0 | 12.0 | 0.00 | 0.00 | 0.00 | 82 | 1016.0 |
| 20260510043708 | 61 | 218 | 4.0 | 12.0 | 0.00 | 0.00 | 0.00 | 82 | 1015.9 |
| 20260510043607 | 61 | 194 | 4.0 | 12.0 | 0.00 | 0.00 | 0.00 | 82 | 1016.0 |
| 20260510043507 | 61 | 198 | 4.0 | 12.0 | 0.00 | 0.00 | 0.00 | 82 | 1015.9 |
| 20260510043408 | 61 | 204 | 4.0 | 12.0 | 0.00 | 0.00 | 0.00 | 82 | 1015.9 |
| 20260510043308 | 61 | 213 | 3.0 | 12.0 | 0.00 | 0.00 | 0.00 | 82 | 1015.9 |
| 20260510043243 | 61 | 187 | 3.0 | 12.0 | 0.00 | 0.00 | 0.00 | 82 | 1015.9 |
| 20260510043231 | 61 | 246 | 3.0 | 12.0 | 0.00 | 0.00 | 0.00 | 82 | 1015.9 |
| 20260510043008 | 61 | 201 | 3.0 | 12.0 | 0.00 | 0.00 | 0.00 | 82 | 1016.0 |
| 20260510042907 | 61 | 205 | 3.0 | 10.0 | 0.00 | 0.00 | 0.00 | 82 | 1015.9 |
| 20260510042808 | 61 | 200 | 3.0 | 10.0 | 0.00 | 0.00 | 0.00 | 82 | 1015.9 |
| 20260510042709 | 61 | 208 | 3.0 | 10.0 | 0.00 | 0.00 | 0.00 | 82 | 1015.9 |
| 20260510042609 | 61 | 194 | 3.0 | 10.0 | 0.00 | 0.00 | 0.00 | 82 | 1015.8 |
| 20260510042507 | 61 | 215 | 3.0 | 10.0 | 0.00 | 0.00 | 0.00 | 82 | 1015.9 |
| 20260510042409 | 61 | 246 | 3.0 | 10.0 | 0.00 | 0.00 | 0.00 | 82 | 1015.9 |
| 20260510042309 | 61 | 259 | 3.0 | 7.0 | 0.00 | 0.00 | 0.00 | 82 | 1015.9 |
| 20260510042205 | 61 | 204 | 3.0 | 6.0 | 0.00 | 0.00 | 0.00 | 82 | 1016.0 |
| 20260510042104 | 61 | 203 | 3.0 | 6.0 | 0.00 | 0.00 | 0.00 | 82 | 1016.0 |
| 20260510042004 | 61 | 212 | 3.0 | 7.0 | 0.00 | 0.00 | 0.00 | 82 | 1015.8 |
| 20260510041905 | 61 | 205 | 3.0 | 7.0 | 0.00 | 0.00 | 0.00 | 82 | 1015.9 |
| 20260510041835 | 61 | 190 | 3.0 | 7.0 | 0.00 | 0.00 | 0.00 | 82 | 1016.0 |
| 20260510041824 | 61 | 200 | 3.0 | 7.0 | 0.00 | 0.00 | 0.00 | 82 | 1015.9 |
| 20260510041605 | 61 | 228 | 3.0 | 7.0 | 0.00 | 0.00 | 0.00 | 82 | 1015.9 |
| 20260510041459 | 61 | 194 | 3.0 | 7.0 | 0.00 | 0.00 | 0.00 | 82 | 1015.9 |
| 20260510041401 | 61 | 230 | 3.0 | 7.0 | 0.00 | 0.00 | 0.00 | 82 | 1016.0 |
| 20260510041301 | 61 | 230 | 3.0 | 7.0 | 0.00 | 0.00 | 0.00 | 82 | 1015.9 |
| 20260510041159 | 61 | 225 | 3.0 | 7.0 | 0.00 | 0.00 | 0.00 | 82 | 1016.0 |
| 20260510041100 | 61 | 235 | 3.0 | 7.0 | 0.00 | 0.00 | 0.00 | 82 | 1015.9 |
| 20260510040959 | 61 | 248 | 3.0 | 8.0 | 0.00 | 0.00 | 0.00 | 82 | 1015.9 |
| 20260510040904 | 61 | 211 | 3.0 | 8.0 | 0.00 | 0.00 | 0.00 | 82 | 1016.0 |
| 20260510040800 | 61 | 173 | 3.0 | 8.0 | 0.00 | 0.00 | 0.00 | 82 | 1015.9 |
| 20260510040659 | 61 | 210 | 3.0 | 8.0 | 0.00 | 0.00 | 0.00 | 82 | 1015.9 |
| 20260510040601 | 61 | 270 | 3.0 | 8.0 | 0.00 | 0.00 | 0.00 | 82 | 1015.9 |
| 20260510040500 | 61 | 214 | 3.0 | 8.0 | 0.00 | 0.00 | 0.00 | 82 | 1016.0 |
| 20260510040359 | 61 | 188 | 3.0 | 8.0 | 0.00 | 0.00 | 0.00 | 82 | 1015.9 |
| 20260510040331 | 61 | 202 | 3.0 | 8.0 | 0.00 | 0.00 | 0.00 | 82 | 1016.0 |
| 20260510040321 | 61 | 186 | 3.0 | 8.0 | 0.00 | 0.00 | 0.00 | 82 | 1016.0 |
| 20260510040139 | 61 | 205 | 3.0 | 8.0 | 0.00 | 0.00 | 0.00 | 82 | 1016.0 |
| 20260510040126 | 61 | 203 | 3.0 | 8.0 | 0.00 | 0.00 | 0.00 | 82 | 1016.0 |
| 20260510035859 | 61 | 165 | 3.0 | 8.0 | 0.00 | 0.00 | 0.00 | 82 | 1016.0 |
| 20260510035830 | 61 | 202 | 3.0 | 8.0 | 0.00 | 0.00 | 0.00 | 82 | 1016.0 |
| 20260510035821 | 61 | 220 | 3.0 | 8.0 | 0.00 | 0.00 | 0.00 | 82 | 1016.0 |
| 20260510035601 | 61 | 201 | 3.0 | 8.0 | 0.00 | 0.00 | 0.00 | 82 | 1016.0 |
| 20260510035500 | 61 | 197 | 2.0 | 8.0 | 0.00 | 0.00 | 0.00 | 82 | 1015.9 |
| 20260510035359 | 61 | 232 | 2.0 | 8.0 | 0.00 | 0.00 | 0.00 | 82 | 1016.0 |
| 20260510035335 | 61 | 204 | 2.0 | 8.0 | 0.00 | 0.00 | 0.00 | 82 | 1016.1 |
| 20260510035323 | 61 | 278 | 2.0 | 8.0 | 0.00 | 0.00 | 0.00 | 82 | 1016.0 |
| 20260510035059 | 61 | 194 | 2.0 | 8.0 | 0.00 | 0.00 | 0.00 | 82 | 1016.1 |
| 20260510035001 | 61 | 173 | 2.0 | 7.0 | 0.00 | 0.00 | 0.00 | 82 | 1016.0 |
| 20260510034858 | 61 | 177 | 2.0 | 7.0 | 0.00 | 0.00 | 0.00 | 82 | 1016.0 |
| 20260510034759 | 61 | 224 | 2.0 | 7.0 | 0.00 | 0.00 | 0.00 | 82 | 1016.1 |
| 20260510034657 | 61 | 194 | 2.0 | 7.0 | 0.00 | 0.00 | 0.00 | 82 | 1016.1 |
| 20260510034558 | 61 | 173 | 2.0 | 7.0 | 0.00 | 0.00 | 0.00 | 82 | 1016.0 |
| 20260510034459 | 61 | 214 | 2.0 | 7.0 | 0.00 | 0.00 | 0.00 | 82 | 1016.0 |
| 20260510034357 | 61 | 198 | 2.0 | 7.0 | 0.00 | 0.00 | 0.00 | 82 | 1016.0 |
| 20260510034257 | 61 | 193 | 2.0 | 7.0 | 0.00 | 0.00 | 0.00 | 82 | 1016.0 |
| 20260510034159 | 61 | 248 | 2.0 | 7.0 | 0.00 | 0.00 | 0.00 | 82 | 1016.0 |
| 20260510034059 | 61 | 211 | 2.0 | 7.0 | 0.00 | 0.00 | 0.00 | 82 | 1016.1 |
| 20260510033958 | 61 | 211 | 2.0 | 7.0 | 0.00 | 0.00 | 0.00 | 82 | 1016.1 |
| 20260510033930 | 61 | 200 | 3.0 | 7.0 | 0.00 | 0.00 | 0.00 | 82 | 1016.1 |
| 20260510033920 | 61 | 200 | 2.0 | 6.0 | 0.00 | 0.00 | 0.00 | 82 | 1016.1 |
| 20260510033657 | 61 | 217 | 2.0 | 7.0 | 0.00 | 0.00 | 0.00 | 82 | 1016.1 |
| 20260510033559 | 61 | 230 | 2.0 | 7.0 | 0.00 | 0.00 | 0.00 | 82 | 1016.1 |
| 20260510033530 | 61 | 202 | 2.0 | 7.0 | 0.00 | 0.00 | 0.00 | 82 | 1016.1 |
| 20260510033519 | 61 | 231 | 2.0 | 7.0 | 0.00 | 0.00 | 0.00 | 82 | 1016.1 |
| 20260510033342 | 61 | 194 | 2.0 | 7.0 | 0.00 | 0.00 | 0.00 | 83 | 1016.1 |
| 20260510033325 | 61 | 207 | 2.0 | 7.0 | 0.00 | 0.00 | 0.00 | 82 | 1016.1 |
| 20260510033057 | 61 | 231 | 2.0 | 7.0 | 0.00 | 0.00 | 0.00 | 83 | 1016.1 |
| 20260510032958 | 61 | 209 | 2.0 | 7.0 | 0.00 | 0.00 | 0.00 | 82 | 1016.1 |
| 20260510032859 | 61 | 217 | 1.0 | 7.0 | 0.00 | 0.00 | 0.00 | 83 | 1016.1 |
| 20260510032753 | 61 | 201 | 1.0 | 6.0 | 0.00 | 0.00 | 0.00 | 83 | 1016.2 |
| 20260510032653 | 60 | 212 | 1.0 | 6.0 | 0.00 | 0.00 | 0.00 | 82 | 1016.1 |
| 20260510032554 | 60 | 212 | 2.0 | 6.0 | 0.00 | 0.00 | 0.00 | 82 | 1016.2 |
| 20260510032455 | 61 | 212 | 2.0 | 6.0 | 0.00 | 0.00 | 0.00 | 82 | 1016.2 |
| 20260510032428 | 61 | 210 | 2.0 | 6.0 | 0.00 | 0.00 | 0.00 | 82 | 1016.2 |
| 20260510032418 | 61 | 209 | 2.0 | 6.0 | 0.00 | 0.00 | 0.00 | 82 | 1016.2 |
| 20260510032154 | 61 | 209 | 2.0 | 6.0 | 0.00 | 0.00 | 0.00 | 82 | 1016.2 |
| 20260510032055 | 61 | 234 | 2.0 | 6.0 | 0.00 | 0.00 | 0.00 | 82 | 1016.2 |
| 20260510031952 | 61 | 236 | 2.0 | 6.0 | 0.00 | 0.00 | 0.00 | 82 | 1016.2 |
| 20260510031852 | 61 | 236 | 2.0 | 6.0 | 0.00 | 0.00 | 0.00 | 82 | 1016.2 |
| 20260510031752 | 61 | 238 | 2.0 | 5.0 | 0.00 | 0.00 | 0.00 | 82 | 1016.2 |
| 20260510031653 | 61 | 210 | 2.0 | 5.0 | 0.00 | 0.00 | 0.00 | 82 | 1016.2 |
| 20260510031553 | 61 | 215 | 2.0 | 5.0 | 0.00 | 0.00 | 0.00 | 82 | 1016.2 |
| 20260510031452 | 61 | 208 | 2.0 | 5.0 | 0.00 | 0.00 | 0.00 | 82 | 1016.2 |
| 20260510031350 | 61 | 189 | 1.0 | 5.0 | 0.00 | 0.00 | 0.00 | 81 | 1016.2 |
| 20260510031320 | 61 | 231 | 1.0 | 5.0 | 0.00 | 0.00 | 0.00 | 81 | 1016.1 |
| 20260510031310 | 61 | 221 | 1.0 | 5.0 | 0.00 | 0.00 | 0.00 | 81 | 1016.2 |
| 20260510031040 | 61 | 239 | 1.0 | 6.0 | 0.00 | 0.00 | 0.00 | 81 | 1016.1 |
| 20260510031019 | 61 | 220 | 1.0 | 6.0 | 0.00 | 0.00 | 0.00 | 81 | 1016.2 |
| 20260510031006 | 61 | 219 | 1.0 | 6.0 | 0.00 | 0.00 | 0.00 | 81 | 1016.2 |
| 20260510030737 | 61 | 217 | 1.0 | 6.0 | 0.00 | 0.00 | 0.00 | 81 | 1016.2 |
| 20260510030638 | 61 | 215 | 1.0 | 6.0 | 0.00 | 0.00 | 0.00 | 81 | 1016.1 |
| 20260510030609 | 61 | 223 | 0.0 | 6.0 | 0.00 | 0.00 | 0.00 | 81 | 1016.2 |
| 20260510030557 | 61 | 227 | 1.0 | 6.0 | 0.00 | 0.00 | 0.00 | 81 | 1016.2 |
| 20260510030331 | 61 | 207 | 1.0 | 6.0 | 0.00 | 0.00 | 0.00 | 81 | 1016.2 |
| 20260510030230 | 61 | 207 | 1.0 | 6.0 | 0.00 | 0.00 | 0.00 | 80 | 1016.2 |
| 20260510030131 | 61 | 232 | 0.0 | 4.0 | 0.00 | 0.00 | 0.00 | 80 | 1016.2 |
| 20260510030024 | 61 | 196 | 0.0 | 3.0 | 0.00 | 0.00 | 0.00 | 80 | 1016.1 |
| 20260510030005 | 61 | 196 | 0.0 | 3.0 | 0.00 | 0.00 | 0.00 | 80 | 1016.1 |
| 20260510025952 | 61 | 196 | 1.0 | 3.0 | 0.00 | 0.00 | 0.00 | 80 | 1016.1 |
| 20260510025722 | 61 | 194 | 0.0 | 3.0 | 0.00 | 0.00 | 0.00 | 80 | 1016.0 |
| 20260510025622 | 61 | 188 | 0.0 | 3.0 | 0.00 | 0.00 | 0.00 | 79 | 1016.0 |
| 20260510025517 | 61 | 188 | 0.0 | 3.0 | 0.00 | 0.00 | 0.00 | 79 | 1016.0 |
| 20260510025417 | 61 | 188 | 0.0 | 3.0 | 0.00 | 0.00 | 0.00 | 79 | 1016.0 |
| 20260510025315 | 61 | 188 | 0.0 | 3.0 | 0.00 | 0.00 | 0.00 | 79 | 1015.9 |
| 20260510025216 | 62 | 186 | 0.0 | 3.0 | 0.00 | 0.00 | 0.00 | 79 | 1015.9 |
| 20260510025117 | 62 | 186 | 0.0 | 3.0 | 0.00 | 0.00 | 0.00 | 79 | 1015.9 |
| 20260510025010 | 62 | 182 | 0.0 | 3.0 | 0.00 | 0.00 | 0.00 | 78 | 1015.9 |
| 20260510024912 | 62 | 180 | 0.0 | 0.0 | 0.00 | 0.00 | 0.00 | 78 | 1015.8 |
| 20260510024906 | 62 | 175 | 0.0 | 0.0 | 0.00 | 0.00 | 0.00 | 78 | 1015.9 |
| 20260510024900 | 62 | 175 | 0.0 | 0.0 | 0.00 | 0.00 | 0.00 | 78 | 1015.9 |
| 20260510024844 | 62 | 180 | 0.0 | 0.0 | 0.00 | 0.00 | 0.00 | 79 | 1015.9 |
| 20260510024538 | 62 | 232 | 0.0 | 0.0 | 0.00 | 0.00 | 0.00 | 78 | 1015.9 |
| 20260510024526 | 62 | 232 | 0.0 | 0.0 | 0.00 | 0.00 | 0.00 | 78 | 1015.9 |
| 20260510024300 | 62 | 232 | 0.0 | 0.0 | 0.00 | 0.00 | 0.00 | 78 | 1015.9 |
| 20260510024159 | 62 | 232 | 0.0 | 0.0 | 0.00 | 0.00 | 0.00 | 78 | 1015.8 |
| 20260510024059 | 62 | 220 | 0.0 | 1.0 | 0.00 | 0.00 | 0.00 | 77 | 1015.9 |
| 20260510023957 | 62 | 220 | 0.0 | 2.0 | 0.00 | 0.00 | 0.00 | 77 | 1015.9 |
| 20260510023858 | 62 | 220 | 0.0 | 2.0 | 0.00 | 0.00 | 0.00 | 77 | 1015.8 |
| 20260510023757 | 62 | 220 | 0.0 | 2.0 | 0.00 | 0.00 | 0.00 | 77 | 1015.8 |
| 20260510023657 | 62 | 220 | 0.0 | 2.0 | 0.00 | 0.00 | 0.00 | 77 | 1015.8 |
| 20260510023555 | 62 | 220 | 0.0 | 3.0 | 0.00 | 0.00 | 0.00 | 77 | 1015.8 |
| 20260510023525 | 62 | 219 | 0.0 | 3.0 | 0.00 | 0.00 | 0.00 | 77 | 1015.8 |
| 20260510023513 | 62 | 220 | 0.0 | 3.0 | 0.00 | 0.00 | 0.00 | 77 | 1015.8 |
| 20260510023248 | 62 | 219 | 1.0 | 3.0 | 0.00 | 0.00 | 0.00 | 77 | 1015.7 |
| 20260510023218 | 62 | 219 | 1.0 | 4.0 | 0.00 | 0.00 | 0.00 | 76 | 1015.7 |
| 20260510023208 | 62 | 219 | 1.0 | 3.0 | 0.00 | 0.00 | 0.00 | 77 | 1015.7 |
| 20260510023016 | 63 | 219 | 1.0 | 4.0 | 0.00 | 0.00 | 0.00 | 76 | 1015.6 |
| 20260510023004 | 63 | 219 | 1.0 | 4.0 | 0.00 | 0.00 | 0.00 | 76 | 1015.7 |
| 20260510022742 | 63 | 219 | 1.0 | 4.0 | 0.00 | 0.00 | 0.00 | 76 | 1015.6 |
| 20260510022716 | 63 | 225 | 1.0 | 4.0 | 0.00 | 0.00 | 0.00 | 76 | 1015.7 |
| 20260510022705 | 63 | 219 | 1.0 | 4.0 | 0.00 | 0.00 | 0.00 | 76 | 1015.7 |
| 20260510022439 | 63 | 225 | 1.0 | 4.0 | 0.00 | 0.00 | 0.00 | 76 | 1015.6 |
| 20260510022339 | 63 | 225 | 1.0 | 4.0 | 0.00 | 0.00 | 0.00 | 76 | 1015.6 |
| 20260510022241 | 63 | 225 | 1.0 | 4.0 | 0.00 | 0.00 | 0.00 | 76 | 1015.6 |
| 20260510022137 | 63 | 225 | 1.0 | 4.0 | 0.00 | 0.00 | 0.00 | 76 | 1015.5 |
| 20260510022037 | 63 | 209 | 1.0 | 4.0 | 0.00 | 0.00 | 0.00 | 76 | 1015.5 |
| 20260510021939 | 63 | 208 | 1.0 | 4.0 | 0.00 | 0.00 | 0.00 | 75 | 1015.5 |
| 20260510021837 | 63 | 209 | 1.0 | 4.0 | 0.00 | 0.00 | 0.00 | 75 | 1015.5 |
| 20260510021737 | 63 | 209 | 1.0 | 4.0 | 0.00 | 0.00 | 0.00 | 75 | 1015.5 |
| 20260510021637 | 63 | 216 | 1.0 | 4.0 | 0.00 | 0.00 | 0.00 | 75 | 1015.5 |
| 20260510021536 | 63 | 216 | 1.0 | 4.0 | 0.00 | 0.00 | 0.00 | 75 | 1015.5 |
| 20260510021454 | 63 | 223 | 1.0 | 3.0 | 0.00 | 0.00 | 0.00 | 75 | 1015.5 |
| 20260510021450 | 63 | 223 | 1.0 | 3.0 | 0.00 | 0.00 | 0.00 | 75 | 1015.6 |
| 20260510021437 | 63 | 216 | 1.0 | 4.0 | 0.00 | 0.00 | 0.00 | 75 | 1015.5 |
| 20260510021413 | 63 | 219 | 1.0 | 3.0 | 0.00 | 0.00 | 0.00 | 75 | 1015.5 |
| 20260510021025 | 63 | 224 | 1.0 | 3.0 | 0.00 | 0.00 | 0.00 | 75 | 1015.4 |
| 20260510020925 | 63 | 226 | 1.0 | 3.0 | 0.00 | 0.00 | 0.00 | 75 | 1015.5 |
| 20260510020825 | 63 | 225 | 0.0 | 3.0 | 0.00 | 0.00 | 0.00 | 75 | 1015.4 |
| 20260510020726 | 63 | 229 | 0.0 | 3.0 | 0.00 | 0.00 | 0.00 | 75 | 1015.5 |
| 20260510020716 | 64 | 238 | 0.0 | 0.0 | 0.00 | 0.00 | 0.00 | 74 | 1015.4 |
| 20260510020711 | 64 | 238 | 0.0 | 0.0 | 0.00 | 0.00 | 0.00 | 74 | 1015.4 |
| 20260510020655 | 63 | 234 | 0.0 | 3.0 | 0.00 | 0.00 | 0.00 | 75 | 1015.4 |
| 20260510020526 | 64 | 234 | 0.0 | 3.0 | 0.00 | 0.00 | 0.00 | 75 | 1015.4 |
| 20260510020519 | 64 | 238 | 0.0 | 0.0 | 0.00 | 0.00 | 0.00 | 74 | 1015.3 |
| 20260510020459 | 64 | 238 | 0.0 | 0.0 | 0.00 | 0.00 | 0.00 | 74 | 1015.4 |
| 20260510020312 | 64 | 238 | 0.0 | 0.0 | 0.00 | 0.00 | 0.00 | 74 | 1015.3 |
| 20260510020149 | 64 | 238 | 0.0 | 0.0 | 0.00 | 0.00 | 0.00 | 74 | 1015.4 |
| 20260510015810 | 64 | 238 | 0.0 | 0.0 | 0.00 | 0.00 | 0.00 | 74 | 1015.3 |
| 20260510015752 | 64 | 238 | 0.0 | 0.0 | 0.00 | 0.00 | 0.00 | 73 | 1015.3 |
| 20260510015746 | 64 | 238 | 0.0 | 0.0 | 0.00 | 0.00 | 0.00 | 73 | 1015.3 |
| 20260510015740 | 64 | 238 | 0.0 | 0.0 | 0.00 | 0.00 | 0.00 | 72 | 1015.3 |
| 20260510015730 | 64 | 238 | 0.0 | 0.0 | 0.00 | 0.00 | 0.00 | 73 | 1015.3 |
| 20260510015545 | 64 | 238 | 0.0 | 0.0 | 0.00 | 0.00 | 0.00 | 73 | 1015.3 |
| 20260510015208 | 65 | 240 | 0.0 | 3.0 | 0.00 | 0.00 | 0.00 | 72 | 1015.2 |
| 20260510015159 | 65 | 239 | 0.0 | 0.0 | 0.00 | 0.00 | 0.00 | 72 | 1015.2 |
| 20260510015138 | 65 | 240 | 0.0 | 1.0 | 0.00 | 0.00 | 0.00 | 72 | 1015.2 |
| 20260510015018 | 65 | 240 | 0.0 | 2.0 | 0.00 | 0.00 | 0.00 | 72 | 1015.2 |
| 20260510014757 | 65 | 243 | 1.0 | 3.0 | 0.00 | 0.00 | 0.00 | 72 | 1015.1 |
| 20260510014655 | 65 | 243 | 1.0 | 3.0 | 0.00 | 0.00 | 0.00 | 71 | 1015.2 |
| 20260510014555 | 65 | 243 | 1.0 | 3.0 | 0.00 | 0.00 | 0.00 | 71 | 1015.2 |
| 20260510014455 | 65 | 243 | 1.0 | 4.0 | 0.00 | 0.00 | 0.00 | 71 | 1015.1 |
| 20260510014354 | 65 | 243 | 2.0 | 4.0 | 0.00 | 0.00 | 0.00 | 71 | 1015.2 |
| 20260510014255 | 65 | 243 | 2.0 | 4.0 | 0.00 | 0.00 | 0.00 | 71 | 1015.1 |
| 20260510014200 | 65 | 243 | 2.0 | 4.0 | 0.00 | 0.00 | 0.00 | 71 | 1015.1 |
| 20260510014049 | 65 | 243 | 2.0 | 4.0 | 0.00 | 0.00 | 0.00 | 71 | 1015.0 |
| 20260510013949 | 65 | 243 | 2.0 | 4.0 | 0.00 | 0.00 | 0.00 | 71 | 1015.0 |
| 20260510013847 | 65 | 250 | 2.0 | 4.0 | 0.00 | 0.00 | 0.00 | 71 | 1015.0 |
| 20260510013749 | 65 | 249 | 2.0 | 4.0 | 0.00 | 0.00 | 0.00 | 71 | 1015.0 |
| 20260510013647 | 65 | 246 | 2.0 | 4.0 | 0.00 | 0.00 | 0.00 | 71 | 1015.0 |
| 20260510013546 | 65 | 236 | 2.0 | 4.0 | 0.00 | 0.00 | 0.00 | 71 | 1014.8 |
| 20260510013522 | 65 | 293 | 2.0 | 4.0 | 0.00 | 0.00 | 0.00 | 71 | 1014.8 |
| 20260510013511 | 65 | 291 | 2.0 | 4.0 | 0.00 | 0.00 | 0.00 | 71 | 1014.8 |
| 20260510013248 | 65 | 292 | 2.0 | 4.0 | 0.00 | 0.00 | 0.00 | 71 | 1014.8 |
| 20260510013147 | 65 | 294 | 2.0 | 4.0 | 0.00 | 0.00 | 0.00 | 71 | 1014.7 |
| 20260510013045 | 65 | 292 | 2.0 | 4.0 | 0.00 | 0.00 | 0.00 | 71 | 1014.7 |
| 20260510012945 | 65 | 294 | 2.0 | 4.0 | 0.00 | 0.00 | 0.00 | 71 | 1014.7 |
| 20260510012844 | 65 | 296 | 2.0 | 4.0 | 0.00 | 0.00 | 0.00 | 71 | 1014.7 |
| 20260510012743 | 65 | 296 | 2.0 | 4.0 | 0.00 | 0.00 | 0.00 | 71 | 1014.7 |
| 20260510012643 | 65 | 292 | 2.0 | 4.0 | 0.00 | 0.00 | 0.00 | 71 | 1014.7 |
| 20260510012539 | 65 | 293 | 2.0 | 4.0 | 0.00 | 0.00 | 0.00 | 71 | 1014.7 |
| 20260510012441 | 65 | 288 | 2.0 | 4.0 | 0.00 | 0.00 | 0.00 | 71 | 1014.7 |
| 20260510012336 | 65 | 286 | 2.0 | 4.0 | 0.00 | 0.00 | 0.00 | 71 | 1014.7 |
| 20260510012313 | 65 | 284 | 2.0 | 4.0 | 0.00 | 0.00 | 0.00 | 70 | 1014.7 |
| 20260510012300 | 65 | 289 | 2.0 | 4.0 | 0.00 | 0.00 | 0.00 | 70 | 1014.7 |
| 20260510012104 | 65 | 281 | 2.0 | 4.0 | 0.00 | 0.00 | 0.00 | 71 | 1014.7 |
| 20260510012053 | 65 | 281 | 2.0 | 4.0 | 0.00 | 0.00 | 0.00 | 71 | 1014.7 |
| 20260510011827 | 65 | 279 | 2.0 | 4.0 | 0.00 | 0.00 | 0.00 | 71 | 1014.7 |
| 20260510011727 | 65 | 278 | 2.0 | 4.0 | 0.00 | 0.00 | 0.00 | 71 | 1014.7 |
| 20260510011627 | 65 | 281 | 2.0 | 4.0 | 0.00 | 0.00 | 0.00 | 71 | 1014.7 |
| 20260510011524 | 65 | 280 | 2.0 | 4.0 | 0.00 | 0.00 | 0.00 | 72 | 1014.7 |
| 20260510011425 | 65 | 278 | 2.0 | 4.0 | 0.00 | 0.00 | 0.00 | 72 | 1014.7 |
| 20260510011320 | 65 | 280 | 2.0 | 4.0 | 0.00 | 0.00 | 0.00 | 72 | 1014.7 |
| 20260510011255 | 65 | 283 | 2.0 | 4.0 | 0.00 | 0.00 | 0.00 | 71 | 1014.6 |
| 20260510011244 | 65 | 281 | 2.0 | 4.0 | 0.00 | 0.00 | 0.00 | 71 | 1014.6 |
| 20260510011021 | 65 | 281 | 2.0 | 4.0 | 0.00 | 0.00 | 0.00 | 72 | 1014.7 |
| 20260510010921 | 65 | 294 | 2.0 | 4.0 | 0.00 | 0.00 | 0.00 | 72 | 1014.6 |
| 20260510010822 | 65 | 286 | 2.0 | 4.0 | 0.00 | 0.00 | 0.00 | 72 | 1014.5 |
| 20260510010721 | 65 | 286 | 2.0 | 4.0 | 0.00 | 0.00 | 0.00 | 72 | 1014.5 |
| 20260510010617 | 65 | 277 | 2.0 | 4.0 | 0.00 | 0.00 | 0.00 | 72 | 1014.5 |
| 20260510010518 | 65 | 275 | 2.0 | 4.0 | 0.00 | 0.00 | 0.00 | 72 | 1014.5 |
| 20260510010415 | 65 | 270 | 2.0 | 4.0 | 0.00 | 0.00 | 0.00 | 72 | 1014.5 |
| 20260510010316 | 65 | 270 | 2.0 | 4.0 | 0.00 | 0.00 | 0.00 | 72 | 1014.5 |
| 20260510010248 | 65 | 284 | 2.0 | 4.0 | 0.00 | 0.00 | 0.00 | 72 | 1014.6 |
| 20260510010236 | 65 | 264 | 2.0 | 4.0 | 0.00 | 0.00 | 0.00 | 72 | 1014.5 |
| 20260510010053 | 65 | 290 | 2.0 | 5.0 | 0.00 | 0.00 | 0.00 | 72 | 1014.5 |
| 20260510010039 | 65 | 290 | 2.0 | 5.0 | 0.00 | 0.00 | 0.00 | 72 | 1014.5 |
| 20260510005839 | 65 | 286 | 2.0 | 5.0 | 0.00 | 0.00 | 0.00 | 72 | 1014.4 |
| 20260510005831 | 65 | 290 | 2.0 | 5.0 | 0.00 | 0.00 | 0.00 | 72 | 1014.5 |
| 20260510005656 | 65 | 294 | 2.0 | 6.0 | 0.00 | 0.00 | 0.00 | 72 | 1014.3 |
| 20260510005650 | 65 | 265 | 2.0 | 6.0 | 0.00 | 0.00 | 0.00 | 72 | 1014.4 |
| 20260510005640 | 65 | 281 | 2.0 | 6.0 | 0.00 | 0.00 | 0.00 | 72 | 1014.4 |
| 20260510005456 | 65 | 265 | 2.0 | 6.0 | 0.00 | 0.00 | 0.00 | 72 | 1014.4 |
| 20260510005333 | 65 | 247 | 2.0 | 6.0 | 0.00 | 0.00 | 0.00 | 72 | 1014.4 |
| 20260510005108 | 65 | 306 | 2.0 | 6.0 | 0.00 | 0.00 | 0.00 | 72 | 1014.4 |
| 20260510005007 | 65 | 260 | 2.0 | 6.0 | 0.00 | 0.00 | 0.00 | 72 | 1014.3 |
| 20260510004906 | 65 | 296 | 2.0 | 6.0 | 0.00 | 0.00 | 0.00 | 72 | 1014.4 |
| 20260510004804 | 65 | 291 | 2.0 | 6.0 | 0.00 | 0.00 | 0.00 | 72 | 1014.4 |
| 20260510004659 | 65 | 291 | 2.0 | 6.0 | 0.00 | 0.00 | 0.00 | 72 | 1014.4 |
| 20260510004559 | 65 | 250 | 2.0 | 4.0 | 0.00 | 0.00 | 0.00 | 72 | 1014.4 |
| 20260510004459 | 65 | 286 | 2.0 | 4.0 | 0.00 | 0.00 | 0.00 | 72 | 1014.3 |
| 20260510004401 | 65 | 285 | 2.0 | 5.0 | 0.00 | 0.00 | 0.00 | 72 | 1014.3 |
| 20260510004257 | 65 | 254 | 2.0 | 5.0 | 0.00 | 0.00 | 0.00 | 72 | 1014.3 |
| 20260510004158 | 65 | 304 | 2.0 | 5.0 | 0.00 | 0.00 | 0.00 | 72 | 1014.3 |
| 20260510004054 | 65 | 298 | 2.0 | 5.0 | 0.00 | 0.00 | 0.00 | 72 | 1014.3 |
| 20260510003955 | 65 | 306 | 3.0 | 6.0 | 0.00 | 0.00 | 0.00 | 72 | 1014.3 |
| 20260510003855 | 65 | 276 | 3.0 | 6.0 | 0.00 | 0.00 | 0.00 | 72 | 1014.3 |
| 20260510003757 | 65 | 244 | 3.0 | 6.0 | 0.00 | 0.00 | 0.00 | 72 | 1014.3 |
| 20260510003656 | 65 | 239 | 3.0 | 6.0 | 0.00 | 0.00 | 0.00 | 72 | 1014.3 |
| 20260510003555 | 65 | 269 | 3.0 | 6.0 | 0.00 | 0.00 | 0.00 | 72 | 1014.3 |
| 20260510003456 | 65 | 284 | 3.0 | 6.0 | 0.00 | 0.00 | 0.00 | 72 | 1014.3 |
| 20260510003430 | 65 | 239 | 3.0 | 6.0 | 0.00 | 0.00 | 0.00 | 72 | 1014.3 |
| 20260510003418 | 65 | 296 | 2.0 | 6.0 | 0.00 | 0.00 | 0.00 | 72 | 1014.3 |
| 20260510003219 | 65 | 233 | 2.0 | 6.0 | 0.00 | 0.00 | 0.00 | 72 | 1014.3 |
| 20260510003213 | 65 | 277 | 2.0 | 6.0 | 0.00 | 0.00 | 0.00 | 72 | 1014.2 |
| 20260510003159 | 65 | 223 | 3.0 | 6.0 | 0.00 | 0.00 | 0.00 | 72 | 1014.3 |
| 20260510003137 | 65 | 264 | 2.0 | 6.0 | 0.00 | 0.00 | 0.00 | 72 | 1014.4 |
| 20260510002749 | 65 | 238 | 2.0 | 6.0 | 0.00 | 0.00 | 0.00 | 72 | 1014.2 |
| 20260510002650 | 65 | 229 | 2.0 | 6.0 | 0.00 | 0.00 | 0.00 | 72 | 1014.3 |
| 20260510002550 | 65 | 226 | 2.0 | 6.0 | 0.00 | 0.00 | 0.00 | 71 | 1014.2 |
| 20260510002449 | 65 | 284 | 2.0 | 6.0 | 0.00 | 0.00 | 0.00 | 72 | 1014.2 |
| 20260510002349 | 65 | 285 | 2.0 | 6.0 | 0.00 | 0.00 | 0.00 | 71 | 1014.1 |
| 20260510002246 | 65 | 269 | 2.0 | 6.0 | 0.00 | 0.00 | 0.00 | 72 | 1014.2 |
| 20260510002146 | 65 | 259 | 2.0 | 4.0 | 0.00 | 0.00 | 0.00 | 71 | 1014.1 |
| 20260510002044 | 65 | 265 | 2.0 | 4.0 | 0.00 | 0.00 | 0.00 | 71 | 1014.2 |
| 20260510001940 | 65 | 269 | 2.0 | 4.0 | 0.00 | 0.00 | 0.00 | 71 | 1014.2 |
| 20260510001837 | 65 | 272 | 2.0 | 4.0 | 0.00 | 0.00 | 0.00 | 71 | 1014.1 |
| 20260510001739 | 65 | 263 | 2.0 | 4.0 | 0.00 | 0.00 | 0.00 | 71 | 1014.2 |
| 20260510001638 | 65 | 264 | 2.0 | 4.0 | 0.00 | 0.00 | 0.00 | 71 | 1014.2 |
| 20260510001537 | 65 | 284 | 2.0 | 4.0 | 0.00 | 0.00 | 0.00 | 71 | 1014.2 |
| 20260510001433 | 65 | 250 | 2.0 | 4.0 | 0.00 | 0.00 | 0.00 | 71 | 1014.2 |
| 20260510001332 | 65 | 252 | 2.0 | 4.0 | 0.00 | 0.00 | 0.00 | 71 | 1014.2 |
| 20260510001237 | 65 | 249 | 2.0 | 4.0 | 0.00 | 0.00 | 0.00 | 71 | 1014.2 |
| 20260510001132 | 65 | 252 | 2.0 | 4.0 | 0.00 | 0.00 | 0.00 | 71 | 1014.2 |
| 20260510001029 | 65 | 250 | 2.0 | 4.0 | 0.00 | 0.00 | 0.00 | 71 | 1014.2 |
| 20260510000924 | 65 | 251 | 2.0 | 4.0 | 0.00 | 0.00 | 0.00 | 71 | 1014.2 |
| 20260510000825 | 65 | 251 | 2.0 | 4.0 | 0.00 | 0.00 | 0.00 | 71 | 1014.2 |
| 20260510000806 | 66 | 244 | 2.0 | 4.0 | 0.00 | 0.00 | 0.00 | 71 | 1014.1 |
| 20260510000753 | 66 | 242 | 2.0 | 4.0 | 0.00 | 0.00 | 0.00 | 71 | 1014.1 |
| 20260510000522 | 66 | 234 | 2.0 | 4.0 | 0.00 | 0.00 | 0.00 | 72 | 1014.2 |
| 20260510000421 | 66 | 238 | 2.0 | 4.0 | 0.00 | 0.00 | 0.00 | 72 | 1014.2 |
| 20260510000352 | 66 | 236 | 2.0 | 4.0 | 0.00 | 0.00 | 0.00 | 72 | 1014.1 |
| 20260510000342 | 66 | 235 | 2.0 | 4.0 | 0.00 | 0.00 | 0.00 | 72 | 1014.1 |
| 20260510000119 | 66 | 250 | 1.0 | 3.0 | 0.00 | 0.00 | 0.00 | 72 | 1014.2 |
| 20260510000015 | 66 | 252 | 1.0 | 3.0 | 0.00 | 0.00 | 0.00 | 72 | 1014.1 |
| 20260509235905 | 66 | 233 | 1.0 | 3.0 | 0.00 | 0.00 | 0.00 | 71 | 1014.1 |
| 20260509235805 | 66 | 232 | 1.0 | 3.0 | 0.00 | 0.00 | 0.00 | 71 | 1014.1 |
| 20260509235703 | 66 | 250 | 1.0 | 3.0 | 0.00 | 0.00 | 0.00 | 71 | 1014.1 |
| 20260509235604 | 66 | 232 | 1.0 | 3.0 | 0.00 | 0.00 | 0.00 | 71 | 1014.1 |
| 20260509235502 | 66 | 232 | 1.0 | 4.0 | 0.00 | 0.00 | 0.00 | 71 | 1014.0 |
| 20260509235355 | 66 | 234 | 1.0 | 4.0 | 0.00 | 0.00 | 0.00 | 71 | 1014.1 |
| 20260509235254 | 66 | 234 | 1.0 | 4.0 | 0.00 | 0.00 | 0.00 | 71 | 1014.0 |
| 20260509235201 | 66 | 248 | 1.0 | 4.0 | 0.00 | 0.00 | 0.00 | 71 | 1014.0 |
| 20260509235152 | 66 | 219 | 1.0 | 4.0 | 0.00 | 0.00 | 0.00 | 71 | 1014.0 |
| 20260509235132 | 66 | 221 | 1.0 | 4.0 | 0.00 | 0.00 | 0.00 | 71 | 1014.0 |
| 20260509235011 | 66 | 219 | 1.0 | 4.0 | 0.00 | 0.00 | 0.00 | 72 | 1014.0 |
| 20260509234749 | 67 | 217 | 1.0 | 4.0 | 0.00 | 0.00 | 0.00 | 71 | 1014.1 |
| 20260509234733 | 67 | 288 | 2.0 | 7.0 | 0.00 | 0.00 | 0.00 | 70 | 1014.1 |
| 20260509234727 | 67 | 281 | 2.0 | 5.0 | 0.00 | 0.00 | 0.00 | 71 | 1014.1 |
| 20260509234712 | 67 | 215 | 1.0 | 4.0 | 0.00 | 0.00 | 0.00 | 71 | 1014.1 |
| 20260509234653 | 67 | 215 | 1.0 | 5.0 | 0.00 | 0.00 | 0.00 | 71 | 1014.0 |
| 20260509234405 | 67 | 281 | 2.0 | 7.0 | 0.00 | 0.00 | 0.00 | 71 | 1014.1 |
| 20260509234141 | 67 | 288 | 2.0 | 7.0 | 0.00 | 0.00 | 0.00 | 70 | 1014.1 |
| 20260509234041 | 67 | 236 | 2.0 | 7.0 | 0.00 | 0.00 | 0.00 | 70 | 1014.1 |
| 20260509233940 | 67 | 274 | 1.0 | 7.0 | 0.00 | 0.00 | 0.00 | 70 | 1014.0 |
| 20260509233908 | 67 | 260 | 1.0 | 7.0 | 0.00 | 0.00 | 0.00 | 70 | 1014.0 |
| 20260509233858 | 67 | 260 | 1.0 | 7.0 | 0.00 | 0.00 | 0.00 | 70 | 1014.1 |
| 20260509233638 | 67 | 260 | 2.0 | 7.0 | 0.00 | 0.00 | 0.00 | 69 | 1013.9 |
| 20260509233535 | 67 | 221 | 2.0 | 7.0 | 0.00 | 0.00 | 0.00 | 70 | 1014.0 |
| 20260509233434 | 67 | 221 | 2.0 | 7.0 | 0.00 | 0.00 | 0.00 | 70 | 1014.0 |
| 20260509233327 | 67 | 221 | 2.0 | 7.0 | 0.00 | 0.00 | 0.00 | 70 | 1014.0 |
| 20260509233227 | 67 | 221 | 2.0 | 7.0 | 0.00 | 0.00 | 0.00 | 70 | 1014.0 |
| 20260509233128 | 67 | 221 | 3.0 | 7.0 | 0.00 | 0.00 | 0.00 | 70 | 1013.9 |
| 20260509233027 | 67 | 231 | 3.0 | 7.0 | 0.00 | 0.00 | 0.00 | 69 | 1014.0 |
| 20260509232928 | 67 | 231 | 3.0 | 7.0 | 0.00 | 0.00 | 0.00 | 69 | 1013.9 |
| 20260509232846 | 67 | 231 | 3.0 | 9.0 | 0.00 | 0.00 | 0.00 | 68 | 1013.9 |
| 20260509232836 | 67 | 231 | 4.0 | 9.0 | 0.00 | 0.00 | 0.00 | 69 | 1014.0 |
| 20260509232633 | 68 | 267 | 3.0 | 9.0 | 0.00 | 0.00 | 0.00 | 68 | 1013.9 |
| 20260509232627 | 68 | 192 | 3.0 | 9.0 | 0.00 | 0.00 | 0.00 | 68 | 1013.9 |
| 20260509232615 | 68 | 225 | 3.0 | 9.0 | 0.00 | 0.00 | 0.00 | 68 | 1013.9 |
| 20260509232549 | 68 | 276 | 3.0 | 9.0 | 0.00 | 0.00 | 0.00 | 68 | 1013.9 |
| 20260509232239 | 68 | 232 | 3.0 | 9.0 | 0.00 | 0.00 | 0.00 | 68 | 1013.8 |
| 20260509232228 | 68 | 295 | 3.0 | 9.0 | 0.00 | 0.00 | 0.00 | 68 | 1013.8 |
| 20260509232006 | 68 | 234 | 3.0 | 9.0 | 0.00 | 0.00 | 0.00 | 68 | 1013.7 |
| 20260509231905 | 68 | 232 | 3.0 | 9.0 | 0.00 | 0.00 | 0.00 | 67 | 1013.9 |
| 20260509231759 | 68 | 225 | 3.0 | 7.0 | 0.00 | 0.00 | 0.00 | 67 | 1013.9 |
| 20260509231732 | 68 | 297 | 3.0 | 7.0 | 0.00 | 0.00 | 0.00 | 66 | 1013.9 |
| 20260509231722 | 68 | 276 | 3.0 | 7.0 | 0.00 | 0.00 | 0.00 | 67 | 1013.8 |
| 20260509231500 | 68 | 283 | 3.0 | 7.0 | 0.00 | 0.00 | 0.00 | 66 | 1013.8 |
| 20260509231359 | 68 | 313 | 3.0 | 7.0 | 0.00 | 0.00 | 0.00 | 67 | 1013.7 |
| 20260509231251 | 68 | 321 | 3.0 | 7.0 | 0.00 | 0.00 | 0.00 | 68 | 1013.7 |